Observation data for Canadian on 12/13/2019      Previous  Date       Current Mesonet Observations  Soil Data  Daily Summary Page  Observations in Plain Language
KCA1 130600Z 29005KT M01/M03 A2995 RMK A01 T10051032  RH  082%=      5-min Rain = 0
KCA1 130601Z 29004KT M01/M03 A2995 RMK A01 T10061033  RH  082%=      5-min Rain = 0
KCA1 130602Z 29004KT M01/M03 A2995 RMK A01 T10061033  RH  082%=      5-min Rain = 0
KCA1 130603Z 29004KT M01/M03 A2995 RMK A01 T10061033  RH  082%=      5-min Rain = 0
KCA1 130604Z 29004KT M01/M03 A2995 RMK A01 T10071033  RH  082%=      5-min Rain = 0
KCA1 130605Z 30004KT M01/M03 A2994 RMK A01 T10071033  RH  082%=      5-min Rain = 0
KCA1 130606Z 30004KT M01/M03 A2994 RMK A01 T10071034  RH  082%=      5-min Rain = 0
KCA1 130607Z 31004KT M01/M03 A2994 RMK A01 T10061033  RH  082%=      5-min Rain = 0
KCA1 130608Z 32004KT M01/M03 A2994 RMK A01 T10061034  RH  082%=      5-min Rain = 0
KCA1 130609Z 32004KT M01/M04 A2994 RMK A01 T10071035  RH  082%=      5-min Rain = 0
KCA1 130610Z 32005KT M01/M03 A2994 RMK A01 T10081034  RH  082%=      5-min Rain = 0
KCA1 130611Z 32005KT M01/M03 A2994 RMK A01 T10081033  RH  083%=      5-min Rain = 0
KCA1 130612Z 32005KT M01/M03 A2994 RMK A01 T10081034  RH  083%=      5-min Rain = 0
KCA1 130613Z 32005KT M01/M03 A2994 RMK A01 T10081033  RH  083%=      5-min Rain = 0
KCA1 130614Z 31005KT M01/M03 A2994 RMK A01 T10081034  RH  083%=      5-min Rain = 0
KCA1 130615Z 31005KT M01/M03 A2994 RMK A01 T10081033  RH  083%=      5-min Rain = 0
KCA1 130616Z 31005KT M01/M03 A2994 RMK A01 T10071033  RH  083%=      5-min Rain = 0
KCA1 130617Z 31004KT M01/M03 A2994 RMK A01 T10071032  RH  083%=      5-min Rain = 0
KCA1 130618Z 31005KT M01/M03 A2994 RMK A01 T10061032  RH  083%=      5-min Rain = 0
KCA1 130619Z 31005KT M01/M03 A2994 RMK A01 T10061032  RH  083%=      5-min Rain = 0
KCA1 130620Z 31005KT M01/M03 A2994 RMK A01 T10051032  RH  083%=      5-min Rain = 0
KCA1 130621Z 31005KT M01/M03 A2994 RMK A01 T10051031  RH  082%=      5-min Rain = 0
KCA1 130622Z 31005KT M00/M03 A2994 RMK A01 T10041030  RH  082%=      5-min Rain = 0
KCA1 130623Z 30005KT M00/M03 A2994 RMK A01 T10031030  RH  082%=      5-min Rain = 0
KCA1 130624Z 31005KT M00/M03 A2994 RMK A01 T10021030  RH  082%=      5-min Rain = 0
KCA1 130625Z 31005KT M00/M03 A2994 RMK A01 T10021030  RH  081%=      5-min Rain = 0
KCA1 130626Z 31005KT M00/M03 A2994 RMK A01 T10021031  RH  081%=      5-min Rain = 0
KCA1 130627Z 30005KT M00/M03 A2994 RMK A01 T10021031  RH  081%=      5-min Rain = 0
KCA1 130628Z 30004KT M00/M03 A2994 RMK A01 T10031031  RH  081%=      5-min Rain = 0
KCA1 130629Z 30004KT M00/M03 A2994 RMK A01 T10031031  RH  081%=      5-min Rain = 0
KCA1 130630Z 29004KT M00/M03 A2994 RMK A01 T10031031  RH  082%=      5-min Rain = 0
KCA1 130631Z 28004KT M00/M03 A2993 RMK A01 T10021030  RH  082%=      5-min Rain = 0
KCA1 130632Z 27004KT M00/M03 A2993 RMK A01 T10011030  RH  081%=      5-min Rain = 0
KCA1 130633Z 27004KT M00/M03 A2993 RMK A01 T10011030  RH  081%=      5-min Rain = 0
KCA1 130634Z 27005KT M00/M03 A2993 RMK A01 T10011030  RH  080%=      5-min Rain = 0
KCA1 130635Z 28005KT M00/M03 A2993 RMK A01 T10011031  RH  080%=      5-min Rain = 0
KCA1 130636Z 28004KT M00/M03 A2993 RMK A01 T10011030  RH  080%=      5-min Rain = 0
KCA1 130637Z 28005KT M00/M03 A2993 RMK A01 T10011031  RH  080%=      5-min Rain = 0
KCA1 130638Z 28004KT M00/M03 A2993 RMK A01 T10011031  RH  080%=      5-min Rain = 0
KCA1 130639Z 28004KT M00/M03 A2993 RMK A01 T10021032  RH  080%=      5-min Rain = 0
KCA1 130640Z 28004KT M00/M03 A2993 RMK A01 T10031032  RH  080%=      5-min Rain = 0
KCA1 130641Z 28003KT M00/M03 A2993 RMK A01 T10041033  RH  081%=      5-min Rain = 0
KCA1 130642Z 29003KT M01/M03 A2993 RMK A01 T10051033  RH  081%=      5-min Rain = 0
KCA1 130643Z 29003KT M01/M03 A2993 RMK A01 T10051033  RH  081%=      5-min Rain = 0
KCA1 130644Z 29003KT M01/M03 A2993 RMK A01 T10061034  RH  081%=      5-min Rain = 0
KCA1 130645Z 29003KT M01/M03 A2993 RMK A01 T10061034  RH  082%=      5-min Rain = 0
KCA1 130646Z 29004KT M01/M04 A2993 RMK A01 T10081035  RH  082%=      5-min Rain = 0
KCA1 130647Z 29004KT M01/M04 A2993 RMK A01 T10091036  RH  082%=      5-min Rain = 0
KCA1 130648Z 29004KT M01/M04 A2993 RMK A01 T10111037  RH  083%=      5-min Rain = 0
KCA1 130649Z 29005KT M01/M04 A2993 RMK A01 T10121037  RH  083%=      5-min Rain = 0
KCA1 130650Z 30005KT M01/M04 A2993 RMK A01 T10141039  RH  083%=      5-min Rain = 0
KCA1 130651Z 30005KT M02/M04 A2993 RMK A01 T10161039  RH  084%=      5-min Rain = 0
KCA1 130652Z 31004KT M02/M04 A2993 RMK A01 T10171039  RH  085%=      5-min Rain = 0
KCA1 130653Z 31004KT M02/M04 A2993 RMK A01 T10171039  RH  085%=      5-min Rain = 0
KCA1 130654Z 31004KT M02/M04 A2993 RMK A01 T10191040  RH  086%=      5-min Rain = 0
KCA1 130655Z 31004KT M02/M04 A2993 RMK A01 T10201041  RH  086%=      5-min Rain = 0
KCA1 130656Z 31004KT M02/M04 A2993 RMK A01 T10211041  RH  087%=      5-min Rain = 0
KCA1 130657Z 31004KT M02/M04 A2993 RMK A01 T10211040  RH  087%=      5-min Rain = 0
KCA1 130658Z 31004KT M02/M04 A2993 RMK A01 T10211039  RH  087%=      5-min Rain = 0
KCA1 130659Z 30004KT M02/M04 A2993 RMK A01 T10211039  RH  088%=      5-min Rain = 0
KCA1 130700Z 29004KT M02/M04 A2993 RMK A01 T10201038  RH  088%=      5-min Rain = 0
KCA1 130701Z 29005KT M02/M04 A2993 RMK A01 T10191037  RH  088%=      5-min Rain = 0
KCA1 130702Z 29004KT M02/M04 A2993 RMK A01 T10181037  RH  087%=      5-min Rain = 0
KCA1 130703Z 29004KT M02/M04 A2993 RMK A01 T10181037  RH  087%=      5-min Rain = 0
KCA1 130704Z 29004KT M02/M04 A2993 RMK A01 T10181037  RH  086%=      5-min Rain = 0
KCA1 130705Z 29004KT M02/M04 A2993 RMK A01 T10181038  RH  086%=      5-min Rain = 0
KCA1 130706Z 29004KT M02/M04 A2993 RMK A01 T10191039  RH  086%=      5-min Rain = 0
KCA1 130707Z 29005KT M02/M04 A2993 RMK A01 T10201040  RH  086%=      5-min Rain = 0
KCA1 130708Z 29005KT M02/M04 A2993 RMK A01 T10201040  RH  087%=      5-min Rain = 0
KCA1 130709Z 28005KT M02/M04 A2993 RMK A01 T10211040  RH  087%=      5-min Rain = 0
KCA1 130710Z 28005KT M02/M04 A2993 RMK A01 T10221041  RH  087%=      5-min Rain = 0
KCA1 130711Z 28006KT M02/M04 A2993 RMK A01 T10221040  RH  088%=      5-min Rain = 0
KCA1 130712Z 28005KT M02/M04 A2993 RMK A01 T10221039  RH  088%=      5-min Rain = 0
KCA1 130713Z 28006KT M02/M04 A2992 RMK A01 T10221039  RH  088%=      5-min Rain = 0
KCA1 130714Z 29006KT M02/M04 A2992 RMK A01 T10231039  RH  088%=      5-min Rain = 0
KCA1 130715Z 29005KT M02/M04 A2992 RMK A01 T10231039  RH  088%=      5-min Rain = 0
KCA1 130716Z 29005KT M02/M04 A2992 RMK A01 T10231039  RH  089%=      5-min Rain = 0
KCA1 130717Z 30005KT M02/M04 A2992 RMK A01 T10241040  RH  089%=      5-min Rain = 0
KCA1 130718Z 30005KT M03/M04 A2992 RMK A01 T10251041  RH  089%=      5-min Rain = 0
KCA1 130719Z 29005KT M03/M04 A2992 RMK A01 T10251041  RH  089%=      5-min Rain = 0
KCA1 130720Z 29005KT M03/M04 A2992 RMK A01 T10251041  RH  089%=      5-min Rain = 0
KCA1 130721Z 29005KT M03/M04 A2992 RMK A01 T10251040  RH  090%=      5-min Rain = 0
KCA1 130722Z 29005KT M03/M04 A2992 RMK A01 T10251039  RH  090%=      5-min Rain = 0
KCA1 130723Z 29005KT M02/M04 A2992 RMK A01 T10241039  RH  090%=      5-min Rain = 0
KCA1 130724Z 29006KT M02/M04 A2992 RMK A01 T10241039  RH  090%=      5-min Rain = 0
KCA1 130725Z 29005KT M02/M04 A2992 RMK A01 T10241039  RH  090%=      5-min Rain = 0
KCA1 130726Z 29005KT M02/M04 A2992 RMK A01 T10231038  RH  090%=      5-min Rain = 0
KCA1 130727Z 29005KT M02/M04 A2992 RMK A01 T10241039  RH  089%=      5-min Rain = 0
KCA1 130728Z 29004KT M02/M04 A2991 RMK A01 T10241039  RH  089%=      5-min Rain = 0
KCA1 130729Z 29005KT M02/M04 A2991 RMK A01 T10241039  RH  089%=      5-min Rain = 0
KCA1 130730Z 29005KT M02/M04 A2992 RMK A01 T10241040  RH  089%=      5-min Rain = 0
KCA1 130731Z 29006KT M03/M04 A2992 RMK A01 T10251040  RH  089%=      5-min Rain = 0
KCA1 130732Z 29006KT M03/M04 A2992 RMK A01 T10251040  RH  090%=      5-min Rain = 0
KCA1 130733Z 29005KT M03/M04 A2992 RMK A01 T10251039  RH  090%=      5-min Rain = 0
KCA1 130734Z 29006KT M03/M04 A2992 RMK A01 T10251039  RH  090%=      5-min Rain = 0
KCA1 130735Z 29006KT M03/M04 A2992 RMK A01 T10261040  RH  090%=      5-min Rain = 0
KCA1 130736Z 28006KT M03/M04 A2991 RMK A01 T10261040  RH  090%=      5-min Rain = 0
KCA1 130737Z 28006KT M03/M04 A2991 RMK A01 T10261040  RH  090%=      5-min Rain = 0
KCA1 130738Z 29006KT M03/M04 A2991 RMK A01 T10271040  RH  090%=      5-min Rain = 0
KCA1 130739Z 29006KT M03/M04 A2991 RMK A01 T10271040  RH  091%=      5-min Rain = 0
KCA1 130740Z 29006KT M03/M04 A2991 RMK A01 T10271040  RH  091%=      5-min Rain = 0
KCA1 130741Z 29006KT M03/M04 A2991 RMK A01 T10271040  RH  091%=      5-min Rain = 0
KCA1 130742Z 29006KT M03/M04 A2991 RMK A01 T10271040  RH  091%=      5-min Rain = 0
KCA1 130743Z 29006KT M03/M04 A2991 RMK A01 T10281041  RH  090%=      5-min Rain = 0
KCA1 130744Z 29006KT M03/M04 A2991 RMK A01 T10281042  RH  090%=      5-min Rain = 0
KCA1 130745Z 30006KT M03/M04 A2991 RMK A01 T10291042  RH  091%=      5-min Rain = 0
KCA1 130746Z 30006KT M03/M04 A2991 RMK A01 T10291042  RH  091%=      5-min Rain = 0
KCA1 130747Z 30006KT M03/M04 A2991 RMK A01 T10291042  RH  091%=      5-min Rain = 0
KCA1 130748Z 30007KT M03/M04 A2991 RMK A01 T10291041  RH  091%=      5-min Rain = 0
KCA1 130749Z 30007KT M03/M04 A2991 RMK A01 T10291041  RH  091%=      5-min Rain = 0
KCA1 130750Z 31006KT M03/M04 A2991 RMK A01 T10291041  RH  091%=      5-min Rain = 0
KCA1 130751Z 31007KT M03/M04 A2991 RMK A01 T10291041  RH  091%=      5-min Rain = 0
KCA1 130752Z 31007KT M03/M04 A2991 RMK A01 T10281040  RH  091%=      5-min Rain = 0
KCA1 130753Z 31007KT M03/M04 A2991 RMK A01 T10281040  RH  091%=      5-min Rain = 0
KCA1 130754Z 31007KT M03/M04 A2991 RMK A01 T10281040  RH  091%=      5-min Rain = 0
KCA1 130755Z 31007KT M03/M04 A2991 RMK A01 T10271039  RH  091%=      5-min Rain = 0
KCA1 130756Z 31006KT M03/M04 A2991 RMK A01 T10271039  RH  091%=      5-min Rain = 0
KCA1 130757Z 31007KT M03/M04 A2991 RMK A01 T10261039  RH  091%=      5-min Rain = 0
KCA1 130758Z 31006KT M03/M04 A2991 RMK A01 T10261039  RH  091%=      5-min Rain = 0
KCA1 130759Z 31006KT M03/M04 A2991 RMK A01 T10261039  RH  091%=      5-min Rain = 0
KCA1 130800Z 31006KT M03/M04 A2991 RMK A01 T10251038  RH  091%=      5-min Rain = 0
KCA1 130801Z 31006KT M03/M04 A2991 RMK A01 T10251038  RH  091%=      5-min Rain = 0
KCA1 130802Z 32006KT M03/M04 A2991 RMK A01 T10251039  RH  091%=      5-min Rain = 0
KCA1 130803Z 31006KT M03/M04 A2991 RMK A01 T10251038  RH  091%=      5-min Rain = 0
KCA1 130804Z 32006KT M03/M04 A2991 RMK A01 T10251038  RH  091%=      5-min Rain = 0
KCA1 130805Z 32006KT M03/M04 A2991 RMK A01 T10251038  RH  091%=      5-min Rain = 0
KCA1 130806Z 31006KT M03/M04 A2991 RMK A01 T10251038  RH  091%=      5-min Rain = 0
KCA1 130807Z 31006KT M03/M04 A2991 RMK A01 T10251038  RH  091%=      5-min Rain = 0
KCA1 130808Z 31007KT M03/M04 A2991 RMK A01 T10251039  RH  090%=      5-min Rain = 0
KCA1 130809Z 31007KT M03/M04 A2991 RMK A01 T10251039  RH  091%=      5-min Rain = 0
KCA1 130810Z 31007KT M03/M04 A2991 RMK A01 T10261039  RH  091%=      5-min Rain = 0
KCA1 130811Z 31008KT M03/M04 A2991 RMK A01 T10261039  RH  091%=      5-min Rain = 0
KCA1 130812Z 31007KT M03/M04 A2991 RMK A01 T10251038  RH  091%=      5-min Rain = 0
KCA1 130813Z 31008KT M03/M04 A2991 RMK A01 T10251038  RH  091%=      5-min Rain = 0
KCA1 130814Z 31007KT M02/M04 A2991 RMK A01 T10241037  RH  091%=      5-min Rain = 0
KCA1 130815Z 31007KT M02/M04 A2991 RMK A01 T10241037  RH  091%=      5-min Rain = 0
KCA1 130816Z 31007KT M02/M04 A2991 RMK A01 T10231036  RH  091%=      5-min Rain = 0
KCA1 130817Z 31007KT M02/M04 A2991 RMK A01 T10231037  RH  091%=      5-min Rain = 0
KCA1 130818Z 31007KT M02/M04 A2991 RMK A01 T10231037  RH  090%=      5-min Rain = 0
KCA1 130819Z 31008KT M02/M04 A2991 RMK A01 T10231037  RH  090%=      5-min Rain = 0
KCA1 130820Z 31008KT M02/M04 A2991 RMK A01 T10221036  RH  090%=      5-min Rain = 0
KCA1 130821Z 31008KT M02/M04 A2991 RMK A01 T10221036  RH  090%=      5-min Rain = 0
KCA1 130822Z 30008KT M02/M04 A2991 RMK A01 T10221036  RH  090%=      5-min Rain = 0
KCA1 130823Z 30008KT M02/M04 A2991 RMK A01 T10221036  RH  090%=      5-min Rain = 0
KCA1 130824Z 30008KT M02/M04 A2991 RMK A01 T10221036  RH  090%=      5-min Rain = 0
KCA1 130825Z 30008KT M02/M04 A2991 RMK A01 T10211036  RH  090%=      5-min Rain = 0
KCA1 130826Z 30008KT M02/M04 A2991 RMK A01 T10211035  RH  090%=      5-min Rain = 0
KCA1 130827Z 30008KT M02/M04 A2991 RMK A01 T10201035  RH  090%=      5-min Rain = 0
KCA1 130828Z 30008KT M02/M03 A2991 RMK A01 T10201034  RH  090%=      5-min Rain = 0
KCA1 130829Z 30007KT M02/M03 A299 RMK A01 T10191034  RH  090%=      5-min Rain = 0
KCA1 130830Z 30007KT M02/M03 A299 RMK A01 T10191034  RH  089%=      5-min Rain = 0
KCA1 130831Z 30007KT M02/M03 A299 RMK A01 T10181034  RH  089%=      5-min Rain = 0
KCA1 130832Z 30007KT M02/M04 A299 RMK A01 T10191035  RH  089%=      5-min Rain = 0
KCA1 130833Z 30007KT M02/M04 A299 RMK A01 T10191035  RH  089%=      5-min Rain = 0
KCA1 130834Z 30008KT M02/M04 A299 RMK A01 T10191035  RH  089%=      5-min Rain = 0
KCA1 130835Z 30009KT M02/M04 A2991 RMK A01 T10191035  RH  089%=      5-min Rain = 0
KCA1 130836Z 30008KT M02/M04 A2991 RMK A01 T10181035  RH  088%=      5-min Rain = 0
KCA1 130837Z 30009KT M02/M03 A2991 RMK A01 T10171034  RH  088%=      5-min Rain = 0
KCA1 130838Z 30009KT M02/M03 A2991 RMK A01 T10171034  RH  088%=      5-min Rain = 0
KCA1 130839Z 30008KT M02/M03 A2991 RMK A01 T10171034  RH  088%=      5-min Rain = 0
KCA1 130840Z 31008KT M02/M04 A2991 RMK A01 T10171035  RH  088%=      5-min Rain = 0
KCA1 130841Z 31008KT M02/M04 A2991 RMK A01 T10171035  RH  088%=      5-min Rain = 0
KCA1 130842Z 31008KT M02/M04 A2991 RMK A01 T10171036  RH  088%=      5-min Rain = 0
KCA1 130843Z 30007KT M02/M04 A2991 RMK A01 T10181036  RH  088%=      5-min Rain = 0
KCA1 130844Z 30007KT M02/M04 A2991 RMK A01 T10181036  RH  088%=      5-min Rain = 0
KCA1 130845Z 30007KT M02/M04 A2991 RMK A01 T10191036  RH  088%=      5-min Rain = 0
KCA1 130846Z 30007KT M02/M04 A2991 RMK A01 T10181035  RH  088%=      5-min Rain = 0
KCA1 130847Z 30007KT M02/M04 A2991 RMK A01 T10181035  RH  088%=      5-min Rain = 0
KCA1 130848Z 30007KT M02/M03 A2991 RMK A01 T10171034  RH  088%=      5-min Rain = 0
KCA1 130849Z 30007KT M02/M03 A2991 RMK A01 T10161034  RH  088%=      5-min Rain = 0
KCA1 130850Z 30007KT M02/M03 A2991 RMK A01 T10151033  RH  087%=      5-min Rain = 0
KCA1 130851Z 30007KT M02/M03 A2991 RMK A01 T10151034  RH  087%=      5-min Rain = 0
KCA1 130852Z 30007KT M02/M03 A2991 RMK A01 T10151034  RH  087%=      5-min Rain = 0
KCA1 130853Z 30007KT M02/M03 A2991 RMK A01 T10151034  RH  087%=      5-min Rain = 0
KCA1 130854Z 30007KT M02/M03 A299 RMK A01 T10151034  RH  087%=      5-min Rain = 0
KCA1 130855Z 30007KT M02/M03 A299 RMK A01 T10151034  RH  087%=      5-min Rain = 0
KCA1 130856Z 30007KT M02/M04 A299 RMK A01 T10161035  RH  087%=      5-min Rain = 0
KCA1 130857Z 31006KT M02/M03 A299 RMK A01 T10161034  RH  087%=      5-min Rain = 0
KCA1 130858Z 31006KT M02/M04 A299 RMK A01 T10171035  RH  087%=      5-min Rain = 0
KCA1 130859Z 31007KT M02/M04 A299 RMK A01 T10171036  RH  087%=      5-min Rain = 0
KCA1 130900Z 31007KT M02/M04 A299 RMK A01 T10181036  RH  088%=      5-min Rain = 0
KCA1 130901Z 31007KT M02/M04 A299 RMK A01 T10181035  RH  088%=      5-min Rain = 0
KCA1 130902Z 31007KT M02/M04 A299 RMK A01 T10181035  RH  088%=      5-min Rain = 0
KCA1 130903Z 31008KT M02/M03 A299 RMK A01 T10171034  RH  088%=      5-min Rain = 0
KCA1 130904Z 30008KT M02/M03 A299 RMK A01 T10151032  RH  088%=      5-min Rain = 0
KCA1 130905Z 30008KT M01/M03 A299 RMK A01 T10131031  RH  088%=      5-min Rain = 0
KCA1 130906Z 30008KT M01/M03 A299 RMK A01 T10121031  RH  087%=      5-min Rain = 0
KCA1 130907Z 30008KT M01/M03 A299 RMK A01 T10101030  RH  086%=      5-min Rain = 0
KCA1 130908Z 30009KT M01/M03 A299 RMK A01 T10091030  RH  086%=      5-min Rain = 0
KCA1 130909Z 29008KT M01/M03 A299 RMK A01 T10091031  RH  085%=      5-min Rain = 0
KCA1 130910Z 29008KT M01/M03 A299 RMK A01 T10091031  RH  085%=      5-min Rain = 0
KCA1 130911Z 29008KT M01/M03 A299 RMK A01 T10091031  RH  085%=      5-min Rain = 0
KCA1 130912Z 29008KT M01/M03 A299 RMK A01 T10091032  RH  085%=      5-min Rain = 0
KCA1 130913Z 30008KT M01/M03 A299 RMK A01 T10091032  RH  085%=      5-min Rain = 0
KCA1 130914Z 30008KT M01/M03 A299 RMK A01 T10091031  RH  085%=      5-min Rain = 0
KCA1 130915Z 30007KT M01/M03 A299 RMK A01 T10091031  RH  085%=      5-min Rain = 0
KCA1 130916Z 31008KT M01/M03 A299 RMK A01 T10091031  RH  085%=      5-min Rain = 0
KCA1 130917Z 31007KT M01/M03 A299 RMK A01 T10091031  RH  085%=      5-min Rain = 0
KCA1 130918Z 31007KT M01/M03 A299 RMK A01 T10091032  RH  085%=      5-min Rain = 0
KCA1 130919Z 31006KT M01/M03 A299 RMK A01 T10101032  RH  085%=      5-min Rain = 0
KCA1 130920Z 31007KT M01/M03 A299 RMK A01 T10101032  RH  085%=      5-min Rain = 0
KCA1 130926Z 30007KT M01/M03 A299 RMK A01 T10131033  RH  086%=      5-min Rain = 0
KCA1 130927Z 30007KT M01/M03 A299 RMK A01 T10131033  RH  086%=      5-min Rain = 0
KCA1 130928Z 30007KT M01/M03 A299 RMK A01 T10131034  RH  086%=      5-min Rain = 0
KCA1 130929Z 30007KT M01/M03 A299 RMK A01 T10141034  RH  086%=      5-min Rain = 0
KCA1 130930Z 30007KT M01/M03 A299 RMK A01 T10141034  RH  086%=      5-min Rain = 0
KCA1 130931Z 31007KT M01/M03 A2989 RMK A01 T10141034  RH  087%=      5-min Rain = 0
KCA1 130932Z 31007KT M02/M03 A2989 RMK A01 T10151034  RH  087%=      5-min Rain = 0
KCA1 130933Z 30007KT M02/M03 A2989 RMK A01 T10151034  RH  087%=      5-min Rain = 0
KCA1 130934Z 30007KT M02/M03 A2989 RMK A01 T10151034  RH  087%=      5-min Rain = 0
KCA1 130935Z 30007KT M02/M03 A2989 RMK A01 T10151034  RH  087%=      5-min Rain = 0
KCA1 130936Z 30008KT M02/M03 A299 RMK A01 T10151034  RH  087%=      5-min Rain = 0
KCA1 130937Z 29007KT M02/M03 A299 RMK A01 T10151034  RH  087%=      5-min Rain = 0
KCA1 130938Z 29007KT M02/M03 A299 RMK A01 T10151034  RH  087%=      5-min Rain = 0
KCA1 130939Z 30007KT M02/M03 A299 RMK A01 T10151034  RH  087%=      5-min Rain = 0
KCA1 130940Z 30007KT M02/M03 A299 RMK A01 T10151034  RH  087%=      5-min Rain = 0
KCA1 130941Z 30007KT M02/M04 A299 RMK A01 T10161035  RH  087%=      5-min Rain = 0
KCA1 130942Z 30007KT M02/M04 A299 RMK A01 T10171036  RH  087%=      5-min Rain = 0
KCA1 130943Z 29007KT M02/M04 A299 RMK A01 T10191037  RH  087%=      5-min Rain = 0
KCA1 130944Z 29007KT M02/M04 A299 RMK A01 T10201038  RH  088%=      5-min Rain = 0
KCA1 130945Z 29007KT M02/M04 A299 RMK A01 T10221039  RH  088%=      5-min Rain = 0
KCA1 130946Z 28007KT M02/M04 A299 RMK A01 T10241040  RH  088%=      5-min Rain = 0
KCA1 130947Z 28007KT M03/M04 A299 RMK A01 T10261042  RH  089%=      5-min Rain = 0
KCA1 130948Z 28007KT M03/M04 A299 RMK A01 T10271042  RH  089%=      5-min Rain = 0
KCA1 130949Z 29007KT M03/M04 A299 RMK A01 T10291043  RH  090%=      5-min Rain = 0
KCA1 130950Z 29007KT M03/M04 A299 RMK A01 T10291042  RH  091%=      5-min Rain = 0
KCA1 130951Z 30007KT M03/M04 A299 RMK A01 T10301042  RH  091%=      5-min Rain = 0
KCA1 130952Z 30007KT M03/M04 A299 RMK A01 T10301042  RH  092%=      5-min Rain = 0
KCA1 130953Z 30007KT M03/M04 A299 RMK A01 T10301042  RH  092%=      5-min Rain = 0
KCA1 130954Z 30007KT M03/M04 A299 RMK A01 T10301042  RH  092%=      5-min Rain = 0
KCA1 130955Z 30007KT M03/M04 A299 RMK A01 T10311042  RH  092%=      5-min Rain = 0
KCA1 130956Z 30007KT M03/M04 A299 RMK A01 T10311042  RH  092%=      5-min Rain = 0
KCA1 130957Z 30007KT M03/M04 A299 RMK A01 T10311042  RH  092%=      5-min Rain = 0
KCA1 130958Z 30008KT M03/M04 A299 RMK A01 T10311042  RH  093%=      5-min Rain = 0
KCA1 130959Z 30008KT M03/M04 A299 RMK A01 T10301041  RH  093%=      5-min Rain = 0
KCA1 131000Z 31007KT M03/M04 A299 RMK A01 T10301040  RH  093%=      5-min Rain = 0
KCA1 131001Z 30007KT M03/M04 A299 RMK A01 T10291040  RH  092%=      5-min Rain = 0
KCA1 131002Z 31007KT M03/M04 A299 RMK A01 T10291040  RH  092%=      5-min Rain = 0
KCA1 131003Z 31008KT M03/M04 A299 RMK A01 T10281039  RH  092%=      5-min Rain = 0
KCA1 131004Z 31007KT M03/M04 A2989 RMK A01 T10271039  RH  092%=      5-min Rain = 0
KCA1 131005Z 31007KT M03/M04 A2989 RMK A01 T10261038  RH  091%=      5-min Rain = 0
KCA1 131006Z 31007KT M03/M04 A2989 RMK A01 T10261039  RH  091%=      5-min Rain = 0
KCA1 131007Z 31007KT M03/M04 A2989 RMK A01 T10251039  RH  091%=      5-min Rain = 0
KCA1 131008Z 31007KT M03/M04 A2989 RMK A01 T10251038  RH  090%=      5-min Rain = 0
KCA1 131009Z 30007KT M02/M04 A2989 RMK A01 T10241037  RH  090%=      5-min Rain = 0
KCA1 131010Z 30007KT M02/M04 A2989 RMK A01 T10221036  RH  090%=      5-min Rain = 0
KCA1 131011Z 30007KT M02/M04 A2989 RMK A01 T10211036  RH  090%=      5-min Rain = 0
KCA1 131012Z 30007KT M02/M04 A2989 RMK A01 T10201036  RH  089%=      5-min Rain = 0
KCA1 131013Z 30007KT M02/M04 A2989 RMK A01 T10191036  RH  089%=      5-min Rain = 0
KCA1 131014Z 30007KT M02/M04 A2989 RMK A01 T10191036  RH  088%=      5-min Rain = 0
KCA1 131015Z 31006KT M02/M04 A2989 RMK A01 T10191036  RH  088%=      5-min Rain = 0
KCA1 131016Z 31006KT M02/M04 A2989 RMK A01 T10201037  RH  088%=      5-min Rain = 0
KCA1 131017Z 30006KT M02/M04 A2989 RMK A01 T10201037  RH  088%=      5-min Rain = 0
KCA1 131018Z 30006KT M02/M04 A2989 RMK A01 T10191037  RH  088%=      5-min Rain = 0
KCA1 131019Z 30006KT M02/M04 A2989 RMK A01 T10191037  RH  088%=      5-min Rain = 0
KCA1 131020Z 29006KT M02/M04 A2989 RMK A01 T10201037  RH  088%=      5-min Rain = 0
KCA1 131021Z 29006KT M02/M04 A2989 RMK A01 T10201037  RH  088%=      5-min Rain = 0
KCA1 131022Z 29006KT M02/M04 A2989 RMK A01 T10201037  RH  088%=      5-min Rain = 0
KCA1 131023Z 29006KT M02/M04 A2989 RMK A01 T10201037  RH  088%=      5-min Rain = 0
KCA1 131024Z 29006KT M02/M04 A2989 RMK A01 T10201038  RH  088%=      5-min Rain = 0
KCA1 131025Z 29007KT M02/M04 A2989 RMK A01 T10211039  RH  088%=      5-min Rain = 0
KCA1 131026Z 29007KT M02/M04 A2989 RMK A01 T10221039  RH  088%=      5-min Rain = 0
KCA1 131027Z 28007KT M02/M04 A2989 RMK A01 T10221039  RH  088%=      5-min Rain = 0
KCA1 131028Z 28007KT M02/M04 A2989 RMK A01 T10221039  RH  088%=      5-min Rain = 0
KCA1 131029Z 28007KT M02/M04 A2989 RMK A01 T10231039  RH  089%=      5-min Rain = 0
KCA1 131030Z 28008KT M02/M04 A2989 RMK A01 T10231039  RH  089%=      5-min Rain = 0
KCA1 131031Z 28007KT M02/M04 A2989 RMK A01 T10241040  RH  089%=      5-min Rain = 0
KCA1 131032Z 28008KT M03/M04 A2989 RMK A01 T10251041  RH  089%=      5-min Rain = 0
KCA1 131033Z 28007KT M03/M04 A2989 RMK A01 T10261041  RH  089%=      5-min Rain = 0
KCA1 131034Z 28008KT M03/M04 A2989 RMK A01 T10271042  RH  090%=      5-min Rain = 0
KCA1 131035Z 28008KT M03/M04 A2989 RMK A01 T10281043  RH  090%=      5-min Rain = 0
KCA1 131036Z 28007KT M03/M04 A2989 RMK A01 T10291043  RH  090%=      5-min Rain = 0
KCA1 131037Z 28007KT M03/M04 A2989 RMK A01 T10301043  RH  091%=      5-min Rain = 0
KCA1 131038Z 29007KT M03/M04 A2989 RMK A01 T10311044  RH  091%=      5-min Rain = 0
KCA1 131039Z 29008KT M03/M04 A2989 RMK A01 T10321044  RH  091%=      5-min Rain = 0
KCA1 131040Z 29008KT M03/M05 A2989 RMK A01 T10331045  RH  092%=      5-min Rain = 0
KCA1 131041Z 30008KT M03/M04 A2989 RMK A01 T10341044  RH  092%=      5-min Rain = 0
KCA1 131042Z 30008KT M03/M04 A2989 RMK A01 T10341044  RH  093%=      5-min Rain = 0
KCA1 131043Z 30008KT M03/M04 A2989 RMK A01 T10331042  RH  093%=      5-min Rain = 0
KCA1 131044Z 30008KT M03/M04 A2989 RMK A01 T10321042  RH  093%=      5-min Rain = 0
KCA1 131045Z 30008KT M03/M04 A2989 RMK A01 T10311041  RH  093%=      5-min Rain = 0
KCA1 131046Z 30008KT M03/M04 A2989 RMK A01 T10311042  RH  093%=      5-min Rain = 0
KCA1 131047Z 30008KT M03/M04 A2989 RMK A01 T10311042  RH  092%=      5-min Rain = 0
KCA1 131048Z 30008KT M03/M04 A2989 RMK A01 T10311041  RH  092%=      5-min Rain = 0
KCA1 131049Z 30008KT M03/M04 A2989 RMK A01 T10301041  RH  092%=      5-min Rain = 0
KCA1 131050Z 31007KT M03/M04 A2989 RMK A01 T10301042  RH  092%=      5-min Rain = 0
KCA1 131051Z 31006KT M03/M04 A2989 RMK A01 T10321043  RH  092%=      5-min Rain = 0
KCA1 131052Z 31006KT M03/M05 A2988 RMK A01 T10341045  RH  092%=      5-min Rain = 0
KCA1 131053Z 31007KT M04/M05 A2988 RMK A01 T10351046  RH  092%=      5-min Rain = 0
KCA1 131054Z 30007KT M04/M05 A2988 RMK A01 T10361046  RH  093%=      5-min Rain = 0
KCA1 131055Z 30007KT M04/M05 A2988 RMK A01 T10361046  RH  093%=      5-min Rain = 0
KCA1 131056Z 29006KT M04/M05 A2988 RMK A01 T10371046  RH  094%=      5-min Rain = 0
KCA1 131057Z 29006KT M04/M05 A2988 RMK A01 T10371046  RH  094%=      5-min Rain = 0
KCA1 131058Z 29006KT M04/M05 A2988 RMK A01 T10371045  RH  094%=      5-min Rain = 0
KCA1 131059Z 29006KT M04/M05 A2988 RMK A01 T10371045  RH  094%=      5-min Rain = 0
KCA1 131100Z 29006KT M04/M04 A2988 RMK A01 T10361044  RH  094%=      5-min Rain = 0
KCA1 131101Z 28006KT M04/M04 A2988 RMK A01 T10361044  RH  094%=      5-min Rain = 0
KCA1 131102Z 29006KT M04/M04 A2988 RMK A01 T10361044  RH  094%=      5-min Rain = 0
KCA1 131103Z 29006KT M04/M04 A2988 RMK A01 T10361044  RH  094%=      5-min Rain = 0
KCA1 131104Z 29006KT M04/M04 A2988 RMK A01 T10361044  RH  094%=      5-min Rain = 0
KCA1 131105Z 30005KT M04/M05 A2988 RMK A01 T10361045  RH  094%=      5-min Rain = 0
KCA1 131106Z 30005KT M04/M05 A2988 RMK A01 T10361045  RH  094%=      5-min Rain = 0
KCA1 131107Z 29005KT M04/M04 A2988 RMK A01 T10351044  RH  094%=      5-min Rain = 0
KCA1 131108Z 29005KT M04/M04 A2988 RMK A01 T10351043  RH  094%=      5-min Rain = 0
KCA1 131109Z 29005KT M03/M04 A2988 RMK A01 T10341043  RH  094%=      5-min Rain = 0
KCA1 131110Z 28005KT M03/M04 A2988 RMK A01 T10331042  RH  094%=      5-min Rain = 0
KCA1 131111Z 27005KT M03/M04 A2988 RMK A01 T10331043  RH  093%=      5-min Rain = 0
KCA1 131112Z 27006KT M03/M04 A2988 RMK A01 T10341044  RH  093%=      5-min Rain = 0
KCA1 131113Z 27006KT M03/M04 A2988 RMK A01 T10341044  RH  093%=      5-min Rain = 0
KCA1 131114Z 27007KT M04/M05 A2988 RMK A01 T10351045  RH  093%=      5-min Rain = 0
KCA1 131115Z 28007KT M04/M05 A2988 RMK A01 T10361046  RH  093%=      5-min Rain = 0
KCA1 131116Z 28007KT M04/M05 A2988 RMK A01 T10361045  RH  094%=      5-min Rain = 0
KCA1 131117Z 28007KT M04/M05 A2988 RMK A01 T10371046  RH  094%=      5-min Rain = 0
KCA1 131118Z 28007KT M04/M05 A2989 RMK A01 T10371045  RH  094%=      5-min Rain = 0
KCA1 131119Z 28007KT M04/M05 A2989 RMK A01 T10371045  RH  094%=      5-min Rain = 0
KCA1 131120Z 28007KT M04/M05 A2989 RMK A01 T10371045  RH  095%=      5-min Rain = 0
KCA1 131121Z 28007KT M04/M04 A2989 RMK A01 T10371044  RH  095%=      5-min Rain = 0
KCA1 131122Z 28008KT M04/M04 A2989 RMK A01 T10371044  RH  095%=      5-min Rain = 0
KCA1 131123Z 28008KT M04/M04 A2989 RMK A01 T10371044  RH  095%=      5-min Rain = 0
KCA1 131124Z 29007KT M04/M04 A2989 RMK A01 T10371044  RH  095%=      5-min Rain = 0
KCA1 131125Z 29007KT M04/M04 A2989 RMK A01 T10371044  RH  095%=      5-min Rain = 0
KCA1 131126Z 29006KT M04/M04 A2989 RMK A01 T10371044  RH  095%=      5-min Rain = 0
KCA1 131127Z 30007KT M04/M04 A2988 RMK A01 T10371044  RH  095%=      5-min Rain = 0
KCA1 131128Z 30007KT M04/M04 A2988 RMK A01 T10361043  RH  095%=      5-min Rain = 0
KCA1 131129Z 30007KT M04/M04 A2988 RMK A01 T10351042  RH  095%=      5-min Rain = 0
KCA1 131130Z 30008KT M03/M04 A2988 RMK A01 T10331040  RH  095%=      5-min Rain = 0
KCA1 131131Z 31007KT M03/M04 A2988 RMK A01 T10311038  RH  095%=      5-min Rain = 0
KCA1 131132Z 30007KT M03/M04 A2988 RMK A01 T10301038  RH  094%=      5-min Rain = 0
KCA1 131133Z 29007KT M03/M04 A2988 RMK A01 T10291039  RH  093%=      5-min Rain = 0
KCA1 131134Z 29007KT M03/M04 A2988 RMK A01 T10301040  RH  093%=      5-min Rain = 0
KCA1 131135Z 28007KT M03/M04 A2988 RMK A01 T10301040  RH  093%=      5-min Rain = 0
KCA1 131136Z 28008KT M03/M04 A2988 RMK A01 T10301040  RH  093%=      5-min Rain = 0
KCA1 131137Z 29007KT M03/M04 A2988 RMK A01 T10301040  RH  093%=      5-min Rain = 0
KCA1 131138Z 29006KT M03/M04 A2988 RMK A01 T10291040  RH  092%=      5-min Rain = 0
KCA1 131139Z 29007KT M03/M04 A2988 RMK A01 T10291040  RH  092%=      5-min Rain = 0
KCA1 131140Z 29006KT M03/M04 A2988 RMK A01 T10291041  RH  092%=      5-min Rain = 0
KCA1 131141Z 29007KT M03/M04 A2988 RMK A01 T10291041  RH  092%=      5-min Rain = 0
KCA1 131142Z 29007KT M03/M04 A2988 RMK A01 T10301041  RH  092%=      5-min Rain = 0
KCA1 131143Z 29007KT M03/M04 A2988 RMK A01 T10301041  RH  092%=      5-min Rain = 0
KCA1 131144Z 29007KT M03/M04 A2988 RMK A01 T10301041  RH  092%=      5-min Rain = 0
KCA1 131145Z 30008KT M03/M04 A2988 RMK A01 T10301041  RH  092%=      5-min Rain = 0
KCA1 131146Z 29008KT M03/M04 A2988 RMK A01 T10301041  RH  092%=      5-min Rain = 0
KCA1 131147Z 30008KT M03/M04 A2988 RMK A01 T10301041  RH  092%=      5-min Rain = 0
KCA1 131148Z 30008KT M03/M04 A2988 RMK A01 T10301041  RH  092%=      5-min Rain = 0
KCA1 131149Z 30007KT M03/M04 A2988 RMK A01 T10291040  RH  092%=      5-min Rain = 0
KCA1 131150Z 31007KT M03/M04 A2988 RMK A01 T10291041  RH  092%=      5-min Rain = 0
KCA1 131151Z 31007KT M03/M04 A2987 RMK A01 T10301042  RH  092%=      5-min Rain = 0
KCA1 131152Z 31007KT M03/M04 A2987 RMK A01 T10311042  RH  092%=      5-min Rain = 0
KCA1 131153Z 31007KT M03/M04 A2987 RMK A01 T10311042  RH  092%=      5-min Rain = 0
KCA1 131154Z 31007KT M03/M04 A2988 RMK A01 T10321042  RH  093%=      5-min Rain = 0
KCA1 131155Z 31007KT M03/M04 A2988 RMK A01 T10321042  RH  093%=      5-min Rain = 0
KCA1 131156Z 31007KT M03/M04 A2987 RMK A01 T10321042  RH  093%=      5-min Rain = 0
KCA1 131157Z 31006KT M03/M04 A2987 RMK A01 T10311041  RH  093%=      5-min Rain = 0
KCA1 131158Z 31006KT M03/M04 A2987 RMK A01 T10321041  RH  093%=      5-min Rain = 0
KCA1 131159Z 31007KT M03/M04 A2987 RMK A01 T10321041  RH  093%=      5-min Rain = 0
KCA1 131200Z 31007KT M03/M04 A2987 RMK A01 T10321041  RH  093%=      5-min Rain = 0
KCA1 131201Z 30007KT M03/M04 A2987 RMK A01 T10311041  RH  093%=      5-min Rain = 0
KCA1 131202Z 30007KT M03/M04 A2987 RMK A01 T10311040  RH  093%=      5-min Rain = 0
KCA1 131203Z 30007KT M03/M04 A2987 RMK A01 T10301039  RH  093%=      5-min Rain = 0
KCA1 131204Z 30007KT M03/M04 A2987 RMK A01 T10291039  RH  093%=      5-min Rain = 0
KCA1 131205Z 30007KT M03/M04 A2987 RMK A01 T10291040  RH  093%=      5-min Rain = 0
KCA1 131206Z 30007KT M03/M04 A2987 RMK A01 T10291040  RH  092%=      5-min Rain = 0
KCA1 131207Z 30007KT M03/M04 A2987 RMK A01 T10301041  RH  092%=      5-min Rain = 0
KCA1 131208Z 31007KT M03/M04 A2987 RMK A01 T10301041  RH  092%=      5-min Rain = 0
KCA1 131209Z 31006KT M03/M04 A2987 RMK A01 T10301041  RH  092%=      5-min Rain = 0
KCA1 131210Z 31006KT M03/M04 A2987 RMK A01 T10291040  RH  092%=      5-min Rain = 0
KCA1 131211Z 30006KT M03/M04 A2987 RMK A01 T10291040  RH  092%=      5-min Rain = 0
KCA1 131212Z 30006KT M03/M04 A2987 RMK A01 T10281039  RH  092%=      5-min Rain = 0
KCA1 131213Z 30006KT M03/M04 A2987 RMK A01 T10271039  RH  092%=      5-min Rain = 0
KCA1 131214Z 30006KT M03/M04 A2987 RMK A01 T10281039  RH  092%=      5-min Rain = 0
KCA1 131215Z 30006KT M03/M04 A2987 RMK A01 T10281039  RH  092%=      5-min Rain = 0
KCA1 131216Z 30006KT M03/M04 A2987 RMK A01 T10281039  RH  092%=      5-min Rain = 0
KCA1 131217Z 30006KT M03/M04 A2987 RMK A01 T10281039  RH  092%=      5-min Rain = 0
KCA1 131218Z 29007KT M03/M04 A2987 RMK A01 T10271039  RH  092%=      5-min Rain = 0
KCA1 131219Z 29006KT M03/M04 A2987 RMK A01 T10271038  RH  092%=      5-min Rain = 0
KCA1 131220Z 29007KT M03/M04 A2987 RMK A01 T10271039  RH  092%=      5-min Rain = 0
KCA1 131221Z 29007KT M03/M04 A2987 RMK A01 T10261038  RH  092%=      5-min Rain = 0
KCA1 131222Z 29006KT M03/M04 A2987 RMK A01 T10261038  RH  092%=      5-min Rain = 0
KCA1 131223Z 29005KT M03/M04 A2987 RMK A01 T10261038  RH  091%=      5-min Rain = 0
KCA1 131224Z 30006KT M03/M04 A2986 RMK A01 T10261038  RH  091%=      5-min Rain = 0
KCA1 131225Z 30006KT M03/M04 A2986 RMK A01 T10251038  RH  091%=      5-min Rain = 0
KCA1 131226Z 30006KT M03/M04 A2987 RMK A01 T10251038  RH  091%=      5-min Rain = 0
KCA1 131227Z 30006KT M03/M04 A2987 RMK A01 T10251038  RH  091%=      5-min Rain = 0
KCA1 131228Z 29006KT M03/M04 A2987 RMK A01 T10261039  RH  091%=      5-min Rain = 0
KCA1 131229Z 29007KT M03/M04 A2987 RMK A01 T10261038  RH  091%=      5-min Rain = 0
KCA1 131230Z 29007KT M03/M04 A2987 RMK A01 T10261038  RH  091%=      5-min Rain = 0
KCA1 131231Z 29008KT M03/M04 A2987 RMK A01 T10251038  RH  091%=      5-min Rain = 0
KCA1 131232Z 29007KT M03/M04 A2987 RMK A01 T10251038  RH  091%=      5-min Rain = 0
KCA1 131233Z 29008KT M03/M04 A2987 RMK A01 T10251038  RH  091%=      5-min Rain = 0
KCA1 131234Z 29008KT M03/M04 A2986 RMK A01 T10261038  RH  091%=      5-min Rain = 0
KCA1 131235Z 29007KT M03/M04 A2986 RMK A01 T10261038  RH  091%=      5-min Rain = 0
KCA1 131236Z 29007KT M03/M04 A2986 RMK A01 T10261038  RH  091%=      5-min Rain = 0
KCA1 131237Z 29007KT M03/M04 A2986 RMK A01 T10261038  RH  091%=      5-min Rain = 0
KCA1 131238Z 29008KT M03/M04 A2986 RMK A01 T10261038  RH  091%=      5-min Rain = 0
KCA1 131239Z 29007KT M03/M04 A2986 RMK A01 T10261038  RH  091%=      5-min Rain = 0
KCA1 131240Z 29007KT M03/M04 A2986 RMK A01 T10261039  RH  091%=      5-min Rain = 0
KCA1 131241Z 29007KT M03/M04 A2986 RMK A01 T10271039  RH  091%=      5-min Rain = 0
KCA1 131242Z 29007KT M03/M04 A2986 RMK A01 T10271039  RH  092%=      5-min Rain = 0
KCA1 131243Z 29007KT M03/M04 A2986 RMK A01 T10271039  RH  092%=      5-min Rain = 0
KCA1 131244Z 29007KT M03/M04 A2986 RMK A01 T10281039  RH  092%=      5-min Rain = 0
KCA1 131245Z 29007KT M03/M04 A2986 RMK A01 T10281039  RH  092%=      5-min Rain = 0
KCA1 131246Z 29007KT M03/M04 A2986 RMK A01 T10281039  RH  092%=      5-min Rain = 0
KCA1 131247Z 30007KT M03/M04 A2986 RMK A01 T10271039  RH  092%=      5-min Rain = 0
KCA1 131248Z 30007KT M03/M04 A2986 RMK A01 T10271039  RH  092%=      5-min Rain = 0
KCA1 131249Z 30007KT M03/M04 A2986 RMK A01 T10271039  RH  092%=      5-min Rain = 0
KCA1 131250Z 31006KT M03/M04 A2986 RMK A01 T10271039  RH  092%=      5-min Rain = 0
KCA1 131251Z 31007KT M03/M04 A2986 RMK A01 T10281040  RH  092%=      5-min Rain = 0
KCA1 131252Z 31007KT M03/M04 A2986 RMK A01 T10281040  RH  092%=      5-min Rain = 0
KCA1 131253Z 31007KT M03/M04 A2986 RMK A01 T10281040  RH  092%=      5-min Rain = 0
KCA1 131254Z 30007KT M03/M04 A2986 RMK A01 T10281040  RH  092%=      5-min Rain = 0
KCA1 131255Z 30008KT M03/M04 A2986 RMK A01 T10291040  RH  092%=      5-min Rain = 0
KCA1 131256Z 30008KT M03/M04 A2986 RMK A01 T10291040  RH  092%=      5-min Rain = 0
KCA1 131257Z 30008KT M03/M04 A2986 RMK A01 T10291040  RH  092%=      5-min Rain = 0
KCA1 131258Z 30008KT M03/M04 A2986 RMK A01 T10291040  RH  092%=      5-min Rain = 0
KCA1 131259Z 30008KT M03/M04 A2986 RMK A01 T10291040  RH  092%=      5-min Rain = 0
KCA1 131300Z 30009KT M03/M04 A2986 RMK A01 T10291040  RH  092%=      5-min Rain = 0
KCA1 131301Z 30008KT M03/M04 A2986 RMK A01 T10291040  RH  092%=      5-min Rain = 0
KCA1 131302Z 31008KT M03/M04 A2986 RMK A01 T10291040  RH  092%=      5-min Rain = 0
KCA1 131303Z 31008KT M03/M04 A2986 RMK A01 T10291040  RH  092%=      5-min Rain = 0
KCA1 131304Z 31008KT M03/M04 A2986 RMK A01 T10291040  RH  092%=      5-min Rain = 0
KCA1 131305Z 31008KT M03/M04 A2986 RMK A01 T10301040  RH  093%=      5-min Rain = 0
KCA1 131306Z 31007KT M03/M04 A2986 RMK A01 T10301040  RH  093%=      5-min Rain = 0
KCA1 131307Z 31007KT M03/M04 A2986 RMK A01 T10301040  RH  093%=      5-min Rain = 0
KCA1 131308Z 32007KT M03/M04 A2986 RMK A01 T10301040  RH  093%=      5-min Rain = 0
KCA1 131309Z 32007KT M03/M04 A2986 RMK A01 T10301040  RH  093%=      5-min Rain = 0
KCA1 131310Z 32007KT M03/M04 A2986 RMK A01 T10301040  RH  093%=      5-min Rain = 0
KCA1 131311Z 31007KT M03/M04 A2986 RMK A01 T10301040  RH  093%=      5-min Rain = 0
KCA1 131312Z 32007KT M03/M04 A2986 RMK A01 T10301040  RH  093%=      5-min Rain = 0
KCA1 131313Z 32006KT M03/M04 A2986 RMK A01 T10301040  RH  093%=      5-min Rain = 0
KCA1 131314Z 32007KT M03/M04 A2986 RMK A01 T10301040  RH  093%=      5-min Rain = 0
KCA1 131315Z 32006KT M03/M04 A2986 RMK A01 T10301040  RH  093%=      5-min Rain = 0
KCA1 131316Z 32007KT M03/M04 A2986 RMK A01 T10291040  RH  093%=      5-min Rain = 0
KCA1 131317Z 32007KT M03/M04 A2986 RMK A01 T10291040  RH  093%=      5-min Rain = 0
KCA1 131318Z 32007KT M03/M04 A2986 RMK A01 T10291039  RH  093%=      5-min Rain = 0
KCA1 131319Z 32007KT M03/M04 A2986 RMK A01 T10291039  RH  093%=      5-min Rain = 0
KCA1 131320Z 32007KT M03/M04 A2986 RMK A01 T10281038  RH  093%=      5-min Rain = 0
KCA1 131321Z 32007KT M03/M04 A2986 RMK A01 T10271038  RH  093%=      5-min Rain = 0
KCA1 131322Z 32007KT M03/M04 A2986 RMK A01 T10271037  RH  092%=      5-min Rain = 0
KCA1 131323Z 32007KT M03/M04 A2986 RMK A01 T10261036  RH  092%=      5-min Rain = 0
KCA1 131324Z 32007KT M03/M04 A2986 RMK A01 T10251036  RH  092%=      5-min Rain = 0
KCA1 131325Z 32007KT M02/M04 A2986 RMK A01 T10241035  RH  092%=      5-min Rain = 0
KCA1 131326Z 32007KT M02/M04 A2986 RMK A01 T10231035  RH  091%=      5-min Rain = 0
KCA1 131327Z 32006KT M02/M04 A2986 RMK A01 T10221035  RH  091%=      5-min Rain = 0
KCA1 131328Z 32006KT M02/M04 A2986 RMK A01 T10221036  RH  091%=      5-min Rain = 0
KCA1 131329Z 31006KT M02/M04 A2986 RMK A01 T10221036  RH  090%=      5-min Rain = 0
KCA1 131330Z 31006KT M02/M04 A2987 RMK A01 T10221036  RH  090%=      5-min Rain = 0
KCA1 131331Z 31007KT M02/M04 A2987 RMK A01 T10221036  RH  090%=      5-min Rain = 0
KCA1 131332Z 31007KT M02/M04 A2987 RMK A01 T10221037  RH  090%=      5-min Rain = 0
KCA1 131333Z 31007KT M02/M04 A2987 RMK A01 T10221037  RH  090%=      5-min Rain = 0
KCA1 131334Z 31007KT M02/M04 A2987 RMK A01 T10221037  RH  090%=      5-min Rain = 0
KCA1 131335Z 31007KT M02/M04 A2987 RMK A01 T10221037  RH  090%=      5-min Rain = 0
KCA1 131336Z 31006KT M02/M04 A2987 RMK A01 T10221037  RH  090%=      5-min Rain = 0
KCA1 131337Z 31006KT M02/M04 A2987 RMK A01 T10221037  RH  090%=      5-min Rain = 0
KCA1 131338Z 32006KT M02/M04 A2987 RMK A01 T10231038  RH  090%=      5-min Rain = 0
KCA1 131339Z 32006KT M02/M04 A2986 RMK A01 T10231038  RH  090%=      5-min Rain = 0
KCA1 131340Z 32006KT M02/M04 A2986 RMK A01 T10241038  RH  090%=      5-min Rain = 0
KCA1 131341Z 32006KT M02/M04 A2986 RMK A01 T10241038  RH  090%=      5-min Rain = 0
KCA1 131342Z 32006KT M03/M04 A2986 RMK A01 T10251038  RH  090%=      5-min Rain = 0
KCA1 131343Z 32006KT M03/M04 A2986 RMK A01 T10251038  RH  090%=      5-min Rain = 0
KCA1 131344Z 31005KT M03/M04 A2986 RMK A01 T10251038  RH  090%=      5-min Rain = 0
KCA1 131345Z 31005KT M03/M04 A2986 RMK A01 T10251038  RH  090%=      5-min Rain = 0
KCA1 131346Z 30006KT M03/M04 A2986 RMK A01 T10251038  RH  090%=      5-min Rain = 0
KCA1 131347Z 31005KT M02/M04 A2986 RMK A01 T10241037  RH  091%=      5-min Rain = 0
KCA1 131348Z 30005KT M02/M04 A2986 RMK A01 T10231036  RH  090%=      5-min Rain = 0
KCA1 131349Z 30005KT M02/M04 A2986 RMK A01 T10221037  RH  090%=      5-min Rain = 0
KCA1 131350Z 30005KT M02/M04 A2986 RMK A01 T10221037  RH  090%=      5-min Rain = 0
KCA1 131351Z 31005KT M02/M04 A2986 RMK A01 T10221037  RH  090%=      5-min Rain = 0
KCA1 131352Z 30005KT M02/M04 A2986 RMK A01 T10221037  RH  089%=      5-min Rain = 0
KCA1 131353Z 30005KT M02/M04 A2986 RMK A01 T10221038  RH  089%=      5-min Rain = 0
KCA1 131354Z 29005KT M02/M04 A2986 RMK A01 T10221037  RH  089%=      5-min Rain = 0
KCA1 131355Z 29005KT M02/M04 A2986 RMK A01 T10221038  RH  089%=      5-min Rain = 0
KCA1 131356Z 29005KT M02/M04 A2986 RMK A01 T10231038  RH  089%=      5-min Rain = 0
KCA1 131357Z 29006KT M02/M04 A2986 RMK A01 T10241040  RH  089%=      5-min Rain = 0
KCA1 131358Z 28005KT M03/M04 A2986 RMK A01 T10261041  RH  089%=      5-min Rain = 0
KCA1 131359Z 28005KT M03/M04 A2986 RMK A01 T10271042  RH  090%=      5-min Rain = 0
KCA1 131400Z 28006KT M03/M04 A2986 RMK A01 T10281042  RH  090%=      5-min Rain = 0
KCA1 131401Z 28006KT M03/M04 A2986 RMK A01 T10291042  RH  090%=      5-min Rain = 0
KCA1 131402Z 28006KT M03/M04 A2986 RMK A01 T10291042  RH  091%=      5-min Rain = 0
KCA1 131403Z 28007KT M03/M04 A2986 RMK A01 T10301042  RH  091%=      5-min Rain = 0
KCA1 131404Z 28006KT M03/M04 A2986 RMK A01 T10301042  RH  091%=      5-min Rain = 0
KCA1 131405Z 28006KT M03/M04 A2986 RMK A01 T10311042  RH  092%=      5-min Rain = 0
KCA1 131406Z 28006KT M03/M04 A2986 RMK A01 T10301042  RH  092%=      5-min Rain = 0
KCA1 131407Z 28006KT M03/M04 A2986 RMK A01 T10311042  RH  092%=      5-min Rain = 0
KCA1 131408Z 28006KT M03/M04 A2986 RMK A01 T10301041  RH  092%=      5-min Rain = 0
KCA1 131409Z 28006KT M03/M04 A2986 RMK A01 T10301041  RH  092%=      5-min Rain = 0
KCA1 131410Z 28006KT M03/M04 A2986 RMK A01 T10301041  RH  092%=      5-min Rain = 0
KCA1 131411Z 28006KT M03/M04 A2986 RMK A01 T10301041  RH  092%=      5-min Rain = 0
KCA1 131412Z 28006KT M03/M04 A2986 RMK A01 T10301042  RH  092%=      5-min Rain = 0
KCA1 131413Z 28006KT M03/M04 A2986 RMK A01 T10301042  RH  092%=      5-min Rain = 0
KCA1 131414Z 28006KT M03/M04 A2987 RMK A01 T10311043  RH  092%=      5-min Rain = 0
KCA1 131415Z 28006KT M03/M04 A2987 RMK A01 T10321043  RH  092%=      5-min Rain = 0
KCA1 131416Z 29006KT M03/M04 A2987 RMK A01 T10321044  RH  092%=      5-min Rain = 0
KCA1 131417Z 29007KT M03/M04 A2987 RMK A01 T10331044  RH  092%=      5-min Rain = 0
KCA1 131418Z 30007KT M03/M04 A2987 RMK A01 T10321043  RH  093%=      5-min Rain = 0
KCA1 131419Z 31006KT M03/M04 A2987 RMK A01 T10321042  RH  093%=      5-min Rain = 0
KCA1 131420Z 31006KT M03/M04 A2987 RMK A01 T10321042  RH  093%=      5-min Rain = 0
KCA1 131421Z 31007KT M03/M04 A2987 RMK A01 T10311041  RH  093%=      5-min Rain = 0
KCA1 131422Z 30007KT M03/M04 A2987 RMK A01 T10301040  RH  093%=      5-min Rain = 0
KCA1 131423Z 31007KT M03/M04 A2987 RMK A01 T10291039  RH  093%=      5-min Rain = 0
KCA1 131424Z 31007KT M03/M04 A2988 RMK A01 T10291039  RH  092%=      5-min Rain = 0
KCA1 131425Z 31007KT M03/M04 A2988 RMK A01 T10281039  RH  092%=      5-min Rain = 0
KCA1 131426Z 31007KT M03/M04 A2988 RMK A01 T10281039  RH  092%=      5-min Rain = 0
KCA1 131427Z 31007KT M03/M04 A2988 RMK A01 T10271039  RH  092%=      5-min Rain = 0
KCA1 131428Z 31007KT M03/M04 A2988 RMK A01 T10261038  RH  092%=      5-min Rain = 0
KCA1 131429Z 31007KT M03/M04 A2988 RMK A01 T10261038  RH  092%=      5-min Rain = 0
KCA1 131430Z 31007KT M03/M04 A2988 RMK A01 T10251037  RH  091%=      5-min Rain = 0
KCA1 131431Z 31007KT M02/M04 A2988 RMK A01 T10241037  RH  091%=      5-min Rain = 0
KCA1 131432Z 31006KT M02/M04 A2988 RMK A01 T10231036  RH  091%=      5-min Rain = 0
KCA1 131433Z 31006KT M02/M04 A2988 RMK A01 T10221035  RH  091%=      5-min Rain = 0
KCA1 131434Z 31006KT M02/M03 A2988 RMK A01 T10211034  RH  091%=      5-min Rain = 0
KCA1 131435Z 31005KT M02/M03 A2989 RMK A01 T10201033  RH  091%=      5-min Rain = 0
KCA1 131436Z 30005KT M02/M03 A2989 RMK A01 T10181033  RH  090%=      5-min Rain = 0
KCA1 131437Z 30005KT M02/M03 A2989 RMK A01 T10171032  RH  090%=      5-min Rain = 0
KCA1 131438Z 30005KT M02/M03 A2989 RMK A01 T10161031  RH  089%=      5-min Rain = 0
KCA1 131439Z 30005KT M02/M03 A2989 RMK A01 T10151031  RH  089%=      5-min Rain = 0
KCA1 131440Z 30005KT M01/M03 A2989 RMK A01 T10131030  RH  088%=      5-min Rain = 0
KCA1 131441Z 30005KT M01/M03 A2989 RMK A01 T10121030  RH  088%=      5-min Rain = 0
KCA1 131442Z 29005KT M01/M03 A2989 RMK A01 T10111030  RH  087%=      5-min Rain = 0
KCA1 131443Z 30006KT M01/M03 A2988 RMK A01 T10101030  RH  087%=      5-min Rain = 0
KCA1 131444Z 29006KT M01/M03 A2988 RMK A01 T10101031  RH  086%=      5-min Rain = 0
KCA1 131445Z 29005KT M01/M03 A2989 RMK A01 T10101031  RH  086%=      5-min Rain = 0
KCA1 131446Z 28004KT M01/M03 A2989 RMK A01 T10091031  RH  086%=      5-min Rain = 0
KCA1 131447Z 26003KT M01/M03 A2988 RMK A01 T10091030  RH  086%=      5-min Rain = 0
KCA1 131448Z 26003KT M01/M03 A2988 RMK A01 T10081030  RH  086%=      5-min Rain = 0
KCA1 131449Z 26003KT M01/M03 A2988 RMK A01 T10081029  RH  085%=      5-min Rain = 0
KCA1 131450Z 26003KT M01/M03 A2988 RMK A01 T10071029  RH  085%=      5-min Rain = 0
KCA1 131451Z 27004KT M01/M03 A2989 RMK A01 T10071031  RH  084%=      5-min Rain = 0
KCA1 131452Z 27005KT M01/M03 A2989 RMK A01 T10091033  RH  084%=      5-min Rain = 0
KCA1 131453Z 27004KT M01/M03 A2989 RMK A01 T10101034  RH  084%=      5-min Rain = 0
KCA1 131454Z 28004KT M01/M03 A2989 RMK A01 T10111034  RH  084%=      5-min Rain = 0
KCA1 131455Z 28004KT M01/M03 A2989 RMK A01 T10111034  RH  085%=      5-min Rain = 0
KCA1 131456Z 29004KT M01/M03 A2989 RMK A01 T10111033  RH  085%=      5-min Rain = 0
KCA1 131457Z 28004KT M01/M03 A2989 RMK A01 T10111032  RH  086%=      5-min Rain = 0
KCA1 131458Z 29004KT M01/M03 A2989 RMK A01 T10101031  RH  085%=      5-min Rain = 0
KCA1 131459Z 28003KT M01/M03 A2989 RMK A01 T10091032  RH  085%=      5-min Rain = 0
KCA1 131500Z 29004KT M01/M03 A2989 RMK A01 T10081031  RH  085%=      5-min Rain = 0
KCA1 131501Z 29005KT M01/M03 A2989 RMK A01 T10091032  RH  084%=      5-min Rain = 0
KCA1 131502Z 29005KT M01/M03 A2989 RMK A01 T10091032  RH  084%=      5-min Rain = 0
KCA1 131503Z 29006KT M01/M03 A299 RMK A01 T10081031  RH  085%=      5-min Rain = 0
KCA1 131504Z 28007KT M01/M03 A2989 RMK A01 T10071030  RH  085%=      5-min Rain = 0
KCA1 131505Z 28005KT M01/M03 A2989 RMK A01 T10071030  RH  084%=      5-min Rain = 0
KCA1 131506Z 28005KT M01/M03 A2989 RMK A01 T10061029  RH  084%=      5-min Rain = 0
KCA1 131507Z 28006KT M01/M03 A2989 RMK A01 T10051029  RH  084%=      5-min Rain = 0
KCA1 131508Z 28007KT M00/M03 A2989 RMK A01 T10041028  RH  084%=      5-min Rain = 0
KCA1 131509Z 29007KT M00/M03 A2989 RMK A01 T10021027  RH  083%=      5-min Rain = 0
KCA1 131510Z 29006KT M00/M03 A2989 RMK A01 T10021028  RH  083%=      5-min Rain = 0
KCA1 131511Z 29006KT M00/M03 A2989 RMK A01 T10021028  RH  083%=      5-min Rain = 0
KCA1 131512Z 29006KT M00/M03 A2989 RMK A01 T10021027  RH  083%=      5-min Rain = 0
KCA1 131513Z 29005KT M00/M03 A2989 RMK A01 T10011027  RH  083%=      5-min Rain = 0
KCA1 131514Z 28005KT M00/M03 A2989 RMK A01 T10011027  RH  082%=      5-min Rain = 0
KCA1 131515Z 28004KT M00/M03 A2989 RMK A01 T10011027  RH  083%=      5-min Rain = 0
KCA1 131516Z 30004KT 00/03 A2989 RMK A01 T00000-25  RH  083%=      5-min Rain = 0
KCA1 131517Z 29008KT 00/M02 A2989 RMK A01 T00021024  RH  083%=      5-min Rain = 0
KCA1 131518Z 29008KT 00/M02 A2989 RMK A01 T00031024  RH  082%=      5-min Rain = 0
KCA1 131519Z 30007KT 01/M02 A2989 RMK A01 T00051024  RH  081%=      5-min Rain = 0
KCA1 131520Z 29006KT 01/M02 A2989 RMK A01 T00061024  RH  081%=      5-min Rain = 0
KCA1 131521Z 29008KT 01/M02 A2989 RMK A01 T00071024  RH  080%=      5-min Rain = 0
KCA1 131522Z 29007KT 01/M02 A2989 RMK A01 T00071024  RH  080%=      5-min Rain = 0
KCA1 131523Z 29007KT 01/M02 A2989 RMK A01 T00071023  RH  080%=      5-min Rain = 0
KCA1 131524Z 29008KT 01/M02 A2989 RMK A01 T00081023  RH  080%=      5-min Rain = 0
KCA1 131525Z 28006KT 01/M02 A2989 RMK A01 T00081023  RH  080%=      5-min Rain = 0
KCA1 131526Z 29008KT 01/M02 A2989 RMK A01 T00081023  RH  080%=      5-min Rain = 0
KCA1 131527Z 29007KT 01/M02 A2989 RMK A01 T00091023  RH  079%=      5-min Rain = 0
KCA1 131528Z 29008KT 01/M02 A2989 RMK A01 T00091024  RH  079%=      5-min Rain = 0
KCA1 131529Z 29009KT 01/M02 A2989 RMK A01 T00091023  RH  079%=      5-min Rain = 0
KCA1 131530Z 29011KT 01/M02 A2989 RMK A01 T00111023  RH  078%=      5-min Rain = 0
KCA1 131531Z 29009KT 01/M02 A2989 RMK A01 T00111024  RH  077%=      5-min Rain = 0
KCA1 131532Z 29009KT 01/M02 A2989 RMK A01 T00121023  RH  077%=      5-min Rain = 0
KCA1 131533Z 29008KT 01/M02 A2989 RMK A01 T00131022  RH  077%=      5-min Rain = 0
KCA1 131534Z 29008KT 02/M02 A2989 RMK A01 T00151021  RH  077%=      5-min Rain = 0
KCA1 131535Z 30007KT 02/M02 A2989 RMK A01 T00151022  RH  077%=      5-min Rain = 0
KCA1 131536Z 29008KT 02/M02 A2989 RMK A01 T00161021  RH  076%=      5-min Rain = 0
KCA1 131537Z 29007KT 02/M02 A2989 RMK A01 T00161022  RH  076%=      5-min Rain = 0
KCA1 131538Z 29008KT 02/M02 A2989 RMK A01 T00181020  RH  076%=      5-min Rain = 0
KCA1 131539Z 28009KT 02/M02 A2989 RMK A01 T00191020  RH  075%=      5-min Rain = 0
KCA1 131540Z 28008KT 02/M02 A2989 RMK A01 T00201021  RH  074%=      5-min Rain = 0
KCA1 131541Z 27008KT 02/M02 A2989 RMK A01 T00201021  RH  074%=      5-min Rain = 0
KCA1 131542Z 27008KT 02/M02 A2989 RMK A01 T00201021  RH  074%=      5-min Rain = 0
KCA1 131543Z 28010KT 02/M02 A2989 RMK A01 T00211022  RH  073%=      5-min Rain = 0
KCA1 131544Z 27007KT 02/M02 A2989 RMK A01 T00211021  RH  073%=      5-min Rain = 0
KCA1 131545Z 28008KT 02/M02 A2989 RMK A01 T00231020  RH  073%=      5-min Rain = 0
KCA1 131546Z 27007KT 02/M02 A2989 RMK A01 T00241021  RH  073%=      5-min Rain = 0
KCA1 131547Z 27007KT 02/M02 A2989 RMK A01 T00241021  RH  072%=      5-min Rain = 0
KCA1 131548Z 27007KT 03/M02 A2989 RMK A01 T00251020  RH  072%=      5-min Rain = 0
KCA1 131549Z 27008KT 03/M02 A2989 RMK A01 T00271018  RH  072%=      5-min Rain = 0
KCA1 131550Z 27006KT 03/M02 A2989 RMK A01 T00281019  RH  071%=      5-min Rain = 0
KCA1 131551Z 28006KT 03/M02 A2989 RMK A01 T00291019  RH  071%=      5-min Rain = 0
KCA1 131552Z 28008KT 03/M02 A2989 RMK A01 T00291019  RH  071%=      5-min Rain = 0
KCA1 131553Z 28009KT 03/M02 A2989 RMK A01 T00301020  RH  070%=      5-min Rain = 0
KCA1 131554Z 27008KT 03/M02 A2989 RMK A01 T00291021  RH  070%=      5-min Rain = 0
KCA1 131555Z 28007KT 03/M02 A2989 RMK A01 T00301020  RH  070%=      5-min Rain = 0
KCA1 131556Z 28006KT 03/M02 A2989 RMK A01 T00311018  RH  070%=      5-min Rain = 0
KCA1 131557Z 29010KT 03/M02 A2989 RMK A01 T00331018  RH  069%=      5-min Rain = 0
KCA1 131558Z 28008KT 03/M02 A2989 RMK A01 T00321020  RH  069%=      5-min Rain = 0
KCA1 131559Z 28008KT 03/M02 A2989 RMK A01 T00341017  RH  069%=      5-min Rain = 0
KCA1 131600Z 27009KT 04/M02 A2989 RMK A01 T00361017  RH  069%=      5-min Rain = 0
KCA1 131601Z 28011KT 04/M02 A2989 RMK A01 T00371017  RH  068%=      5-min Rain = 0
KCA1 131602Z 28011KT 04/M02 A2989 RMK A01 T00371018  RH  067%=      5-min Rain = 0
KCA1 131603Z 28009KT 04/M02 A2989 RMK A01 T00371018  RH  067%=      5-min Rain = 0
KCA1 131604Z 29008KT 04/M02 A2989 RMK A01 T00381018  RH  067%=      5-min Rain = 0
KCA1 131605Z 28008KT 04/M02 A2989 RMK A01 T00381018  RH  067%=      5-min Rain = 0
KCA1 131606Z 27009KT 04/M02 A2989 RMK A01 T00381017  RH  067%=      5-min Rain = 0
KCA1 131607Z 28008KT 04/M02 A2989 RMK A01 T00391018  RH  066%=      5-min Rain = 0
KCA1 131608Z 29009KT 04/M02 A2989 RMK A01 T00411016  RH  066%=      5-min Rain = 0
KCA1 131609Z 27006KT 04/M02 A2989 RMK A01 T00411018  RH  065%=      5-min Rain = 0
KCA1 131610Z 27008KT 04/M02 A2989 RMK A01 T00421016  RH  066%=      5-min Rain = 0
KCA1 131611Z 27008KT 04/M02 A2989 RMK A01 T00431016  RH  065%=      5-min Rain = 0
KCA1 131612Z 27008KT 04/M02 A2989 RMK A01 T00431016  RH  065%=      5-min Rain = 0
KCA1 131613Z 26008KT 05/M01 A2989 RMK A01 T00461013  RH  066%=      5-min Rain = 0
KCA1 131614Z 27009KT 05/M01 A2989 RMK A01 T00481014  RH  064%=      5-min Rain = 0
KCA1 131615Z 27008KT 05/M02 A2989 RMK A01 T00481016  RH  063%=      5-min Rain = 0
KCA1 131616Z 28007KT 05/M02 A2989 RMK A01 T00471016  RH  064%=      5-min Rain = 0
KCA1 131617Z 28008KT 05/M02 A2989 RMK A01 T00481016  RH  063%=      5-min Rain = 0
KCA1 131618Z 28007KT 05/M02 A2989 RMK A01 T00481016  RH  063%=      5-min Rain = 0
KCA1 131619Z 28009KT 05/M02 A2989 RMK A01 T00491017  RH  062%=      5-min Rain = 0
KCA1 131620Z 28008KT 05/M02 A2989 RMK A01 T00491019  RH  061%=      5-min Rain = 0
KCA1 131621Z 29009KT 05/M02 A2989 RMK A01 T00491017  RH  062%=      5-min Rain = 0
KCA1 131622Z 28009KT 05/M02 A2988 RMK A01 T00511017  RH  062%=      5-min Rain = 0
KCA1 131623Z 28009KT 05/M02 A2988 RMK A01 T00511017  RH  061%=      5-min Rain = 0
KCA1 131624Z 28011KT 05/M02 A2988 RMK A01 T00521018  RH  061%=      5-min Rain = 0
KCA1 131625Z 28009KT 05/M02 A2988 RMK A01 T00531018  RH  060%=      5-min Rain = 0
KCA1 131626Z 28009KT 06/M02 A2988 RMK A01 T00551016  RH  060%=      5-min Rain = 0
KCA1 131627Z 28008KT 06/M02 A2988 RMK A01 T00561017  RH  059%=      5-min Rain = 0
KCA1 131628Z 29009KT 06/M02 A2988 RMK A01 T00571015  RH  060%=      5-min Rain = 0
KCA1 131629Z 28010KT 06/M02 A2988 RMK A01 T00571017  RH  059%=      5-min Rain = 0
KCA1 131630Z 28010KT 06/M02 A2988 RMK A01 T00561019  RH  059%=      5-min Rain = 0
KCA1 131631Z 29009KT 06/M02 A2988 RMK A01 T00551019  RH  059%=      5-min Rain = 0
KCA1 131632Z 28006KT 06/M02 A2988 RMK A01 T00551017  RH  060%=      5-min Rain = 0
KCA1 131633Z 28006KT 06/M01 A2988 RMK A01 T00581013  RH  060%=      5-min Rain = 0
KCA1 131634Z 30006KT 06/M01 A2988 RMK A01 T00601013  RH  059%=      5-min Rain = 0
KCA1 131635Z 31004KT 06/M01 A2988 RMK A01 T00611014  RH  059%=      5-min Rain = 0
KCA1 131636Z 31007KT 06/M01 A2989 RMK A01 T00631013  RH  058%=      5-min Rain = 0
KCA1 131637Z 30009KT 06/M02 A2989 RMK A01 T00641017  RH  056%=      5-min Rain = 0
KCA1 131638Z 30008KT 06/M02 A2989 RMK A01 T00621019  RH  056%=      5-min Rain = 0
KCA1 131639Z 30007KT 06/M02 A2989 RMK A01 T00611019  RH  056%=      5-min Rain = 0
KCA1 131640Z 29007KT 06/M02 A2989 RMK A01 T00611019  RH  056%=      5-min Rain = 0
KCA1 131641Z 30008KT 06/M02 A2989 RMK A01 T00621017  RH  057%=      5-min Rain = 0
KCA1 131642Z 30010KT 07/M02 A2988 RMK A01 T00651016  RH  057%=      5-min Rain = 0
KCA1 131643Z 29010KT 07/M02 A2988 RMK A01 T00651018  RH  055%=      5-min Rain = 0
KCA1 131644Z 30011KT 07/M02 A2988 RMK A01 T00651019  RH  055%=      5-min Rain = 0
KCA1 131645Z 30011KT 07/M02 A2988 RMK A01 T00651018  RH  055%=      5-min Rain = 0
KCA1 131646Z 31009KT 07/M02 A2988 RMK A01 T00651020  RH  055%=      5-min Rain = 0
KCA1 131647Z 31007KT 06/M02 A2988 RMK A01 T00641019  RH  055%=      5-min Rain = 0
KCA1 131648Z 32008KT 07/M02 A2988 RMK A01 T00661016  RH  055%=      5-min Rain = 0
KCA1 131649Z 30006KT 07/M02 A2988 RMK A01 T00681016  RH  055%=      5-min Rain = 0
KCA1 131650Z 30006KT 07/M01 A2988 RMK A01 T00711013  RH  055%=      5-min Rain = 0
KCA1 131651Z 31007KT 07/M02 A2989 RMK A01 T00731015  RH  054%=      5-min Rain = 0
KCA1 131652Z 30008KT 07/M02 A2988 RMK A01 T00731016  RH  053%=      5-min Rain = 0
KCA1 131653Z 31009KT 07/M02 A2988 RMK A01 T00731018  RH  053%=      5-min Rain = 0
KCA1 131654Z 30007KT 07/M02 A2988 RMK A01 T00711018  RH  053%=      5-min Rain = 0
KCA1 131655Z 30008KT 07/M02 A2988 RMK A01 T00731016  RH  054%=      5-min Rain = 0
KCA1 131656Z 31009KT 07/M02 A2988 RMK A01 T00741016  RH  053%=      5-min Rain = 0
KCA1 131657Z 31009KT 07/M02 A2988 RMK A01 T00731019  RH  052%=      5-min Rain = 0
KCA1 131658Z 31008KT 07/M02 A2988 RMK A01 T00721020  RH  052%=      5-min Rain = 0
KCA1 131659Z 32009KT 07/M02 A2988 RMK A01 T00711018  RH  053%=      5-min Rain = 0
KCA1 131700Z 31008KT 07/M02 A2988 RMK A01 T00721019  RH  052%=      5-min Rain = 0
KCA1 131701Z 29008KT 07/M02 A2988 RMK A01 T00721018  RH  053%=      5-min Rain = 0
KCA1 131702Z 30009KT 07/M02 A2988 RMK A01 T00741018  RH  052%=      5-min Rain = 0
KCA1 131703Z 29007KT 08/M02 A2988 RMK A01 T00751017  RH  052%=      5-min Rain = 0
KCA1 131704Z 29007KT 08/M02 A2988 RMK A01 T00771016  RH  052%=      5-min Rain = 0
KCA1 131705Z 32006KT 08/M02 A2987 RMK A01 T00771017  RH  051%=      5-min Rain = 0
KCA1 131706Z 32008KT 08/M02 A2987 RMK A01 T00771017  RH  051%=      5-min Rain = 0
KCA1 131707Z 32006KT 08/M02 A2987 RMK A01 T00781017  RH  051%=      5-min Rain = 0
KCA1 131708Z 30006KT 08/M02 A2987 RMK A01 T00791017  RH  051%=      5-min Rain = 0
KCA1 131709Z 30008KT 08/M02 A2987 RMK A01 T00811015  RH  051%=      5-min Rain = 0
KCA1 131710Z 30007KT 08/M02 A2987 RMK A01 T00811016  RH  050%=      5-min Rain = 0
KCA1 131711Z 30006KT 08/M02 A2987 RMK A01 T00821016  RH  050%=      5-min Rain = 0
KCA1 131712Z 31004KT 09/M01 A2987 RMK A01 T00851012  RH  051%=      5-min Rain = 0
KCA1 131713Z 30007KT 09/M01 A2987 RMK A01 T00871013  RH  049%=      5-min Rain = 0
KCA1 131714Z 31006KT 09/M02 A2987 RMK A01 T00861016  RH  049%=      5-min Rain = 0
KCA1 131715Z 30005KT 09/M02 A2987 RMK A01 T00851015  RH  049%=      5-min Rain = 0
KCA1 131716Z 31005KT 09/M01 A2987 RMK A01 T00861014  RH  049%=      5-min Rain = 0
KCA1 131717Z 30007KT 09/M02 A2987 RMK A01 T00871015  RH  049%=      5-min Rain = 0
KCA1 131718Z 31007KT 09/M01 A2987 RMK A01 T00881014  RH  049%=      5-min Rain = 0
KCA1 131719Z 29005KT 09/M01 A2987 RMK A01 T00901014  RH  048%=      5-min Rain = 0
KCA1 131720Z 33010KT 09/M02 A2987 RMK A01 T00921016  RH  047%=      5-min Rain = 0
KCA1 131721Z 34009KT 09/M03 A2987 RMK A01 T00921025  RH  044%=      5-min Rain = 0
KCA1 131722Z 33011KT 09/M03 A2987 RMK A01 T00931025  RH  043%=      5-min Rain = 0
KCA1 131723Z 34010KT 09/M03 A2987 RMK A01 T00931026  RH  043%=      5-min Rain = 0
KCA1 131724Z 34007KT 09/M03 A2987 RMK A01 T00931026  RH  043%=      5-min Rain = 0
KCA1 131725Z 32009KT 09/M03 A2987 RMK A01 T00931026  RH  043%=      5-min Rain = 0
KCA1 131726Z 30010KT 09/M03 A2987 RMK A01 T00931026  RH  043%=      5-min Rain = 0
KCA1 131727Z 29008KT 09/M03 A2987 RMK A01 T00931025  RH  043%=      5-min Rain = 0
KCA1 131728Z 30009KT 10/M02 A2987 RMK A01 T00951024  RH  043%=      5-min Rain = 0
KCA1 131729Z 30007KT 10/M03 A2986 RMK A01 T00951025  RH  043%=      5-min Rain = 0
KCA1 131730Z 30008KT 10/M02 A2986 RMK A01 T00951024  RH  043%=      5-min Rain = 0
KCA1 131731Z 31006KT 10/M03 A2986 RMK A01 T00951025  RH  043%=      5-min Rain = 0
KCA1 131732Z 29008KT 09/M03 A2986 RMK A01 T00941025  RH  043%=      5-min Rain = 0
KCA1 131733Z 31009KT 10/M02 A2986 RMK A01 T00961023  RH  043%=      5-min Rain = 0
KCA1 131734Z 30008KT 10/M02 A2986 RMK A01 T00961024  RH  043%=      5-min Rain = 0
KCA1 131735Z 29007KT 10/M02 A2986 RMK A01 T00961023  RH  043%=      5-min Rain = 0
KCA1 131736Z 30008KT 10/M02 A2986 RMK A01 T00971024  RH  043%=      5-min Rain = 0
KCA1 131737Z 31007KT 10/M02 A2986 RMK A01 T00981024  RH  042%=      5-min Rain = 0
KCA1 131738Z 30007KT 10/M03 A2986 RMK A01 T00971025  RH  042%=      5-min Rain = 0
KCA1 131739Z 31006KT 10/M02 A2986 RMK A01 T00971023  RH  043%=      5-min Rain = 0
KCA1 131740Z 30007KT 10/M02 A2986 RMK A01 T00981022  RH  043%=      5-min Rain = 0
KCA1 131741Z 29005KT 10/M02 A2986 RMK A01 T00981022  RH  043%=      5-min Rain = 0
KCA1 131742Z 31007KT 10/M02 A2986 RMK A01 T01011020  RH  043%=      5-min Rain = 0
KCA1 131743Z 30008KT 10/M02 A2986 RMK A01 T01011022  RH  042%=      5-min Rain = 0
KCA1 131744Z 31010KT 10/M02 A2986 RMK A01 T01011022  RH  042%=      5-min Rain = 0
KCA1 131745Z 30008KT 10/M02 A2986 RMK A01 T01001023  RH  042%=      5-min Rain = 0
KCA1 131746Z 30006KT 10/M02 A2986 RMK A01 T00991023  RH  042%=      5-min Rain = 0
KCA1 131747Z 30006KT 10/M02 A2986 RMK A01 T01001021  RH  043%=      5-min Rain = 0
KCA1 131748Z 30007KT 10/M02 A2986 RMK A01 T01031020  RH  042%=      5-min Rain = 0
KCA1 131749Z 30007KT 10/M02 A2986 RMK A01 T01031021  RH  042%=      5-min Rain = 0
KCA1 131750Z 31007KT 10/M02 A2986 RMK A01 T01031022  RH  042%=      5-min Rain = 0
KCA1 131751Z 30004KT 10/M03 A2986 RMK A01 T01011025  RH  041%=      5-min Rain = 0
KCA1 131752Z 33007KT 10/M02 A2986 RMK A01 T00991024  RH  042%=      5-min Rain = 0
KCA1 131753Z 33008KT 10/M02 A2986 RMK A01 T01011022  RH  042%=      5-min Rain = 0
KCA1 131754Z 32006KT 10/M02 A2986 RMK A01 T01021021  RH  042%=      5-min Rain = 0
KCA1 131755Z 34005KT 10/M02 A2985 RMK A01 T01031020  RH  042%=      5-min Rain = 0
KCA1 131756Z 33004KT 10/M02 A2985 RMK A01 T01041020  RH  042%=      5-min Rain = 0
KCA1 131757Z 33007KT 11/M02 A2985 RMK A01 T01051021  RH  041%=      5-min Rain = 0
KCA1 131758Z 33008KT 11/M02 A2985 RMK A01 T01051021  RH  041%=      5-min Rain = 0
KCA1 131759Z 33006KT 11/M02 A2985 RMK A01 T01061022  RH  041%=      5-min Rain = 0
KCA1 131800Z 34006KT 11/M02 A2985 RMK A01 T01071020  RH  041%=      5-min Rain = 0
KCA1 131801Z 33006KT 11/M02 A2985 RMK A01 T01081021  RH  040%=      5-min Rain = 0
KCA1 131802Z 30006KT 11/M02 A2985 RMK A01 T01081021  RH  041%=      5-min Rain = 0
KCA1 131803Z 32006KT 11/M02 A2985 RMK A01 T01091021  RH  040%=      5-min Rain = 0
KCA1 131804Z 29005KT 11/M02 A2984 RMK A01 T01081022  RH  040%=      5-min Rain = 0
KCA1 131805Z 30007KT 11/M02 A2984 RMK A01 T01091021  RH  040%=      5-min Rain = 0
KCA1 131806Z 31009KT 11/M02 A2984 RMK A01 T01101021  RH  040%=      5-min Rain = 0
KCA1 131807Z 32008KT 11/M02 A2984 RMK A01 T01111022  RH  039%=      5-min Rain = 0
KCA1 131808Z 33006KT 11/M02 A2984 RMK A01 T01111024  RH  039%=      5-min Rain = 0
KCA1 131809Z 32008KT 11/M02 A2984 RMK A01 T01101024  RH  039%=      5-min Rain = 0
KCA1 131810Z 31006KT 11/M02 A2984 RMK A01 T01101022  RH  040%=      5-min Rain = 0
KCA1 131811Z 31004KT 11/M02 A2984 RMK A01 T01111022  RH  039%=      5-min Rain = 0
KCA1 131812Z 31006KT 11/M02 A2984 RMK A01 T01121021  RH  039%=      5-min Rain = 0
KCA1 131813Z 32005KT 11/M02 A2984 RMK A01 T01131022  RH  039%=      5-min Rain = 0
KCA1 131814Z 31007KT 12/M02 A2984 RMK A01 T01161018  RH  039%=      5-min Rain = 0
KCA1 131815Z 31008KT 12/M02 A2984 RMK A01 T01181021  RH  038%=      5-min Rain = 0
KCA1 131816Z 32007KT 12/M02 A2984 RMK A01 T01161024  RH  038%=      5-min Rain = 0
KCA1 131817Z 31006KT 11/M02 A2984 RMK A01 T01141023  RH  038%=      5-min Rain = 0
KCA1 131818Z 31006KT 11/M02 A2983 RMK A01 T01141023  RH  038%=      5-min Rain = 0
KCA1 131819Z 31005KT 11/M02 A2983 RMK A01 T01141023  RH  038%=      5-min Rain = 0
KCA1 131820Z 31002KT 11/M02 A2983 RMK A01 T01141023  RH  038%=      5-min Rain = 0
KCA1 131821Z 32005KT 12/M02 A2983 RMK A01 T01161021  RH  038%=      5-min Rain = 0
KCA1 131822Z 32007KT 12/M02 A2983 RMK A01 T01171022  RH  038%=      5-min Rain = 0
KCA1 131823Z 30007KT 12/M02 A2983 RMK A01 T01161024  RH  037%=      5-min Rain = 0
KCA1 131824Z 28005KT 12/M02 A2983 RMK A01 T01151023  RH  038%=      5-min Rain = 0
KCA1 131825Z 30008KT 12/M02 A2983 RMK A01 T01181020  RH  038%=      5-min Rain = 0
KCA1 131826Z 28006KT 12/M02 A2983 RMK A01 T01201023  RH  037%=      5-min Rain = 0
KCA1 131827Z 29005KT 12/M02 A2983 RMK A01 T01191024  RH  037%=      5-min Rain = 0
KCA1 131828Z 32005KT 12/M02 A2983 RMK A01 T01181023  RH  037%=      5-min Rain = 0
KCA1 131829Z 33008KT 12/M02 A2983 RMK A01 T01181022  RH  038%=      5-min Rain = 0
KCA1 131830Z 34005KT 12/M02 A2983 RMK A01 T01181021  RH  038%=      5-min Rain = 0
KCA1 131831Z 00007KT 12/M02 A2983 RMK A01 T01191021  RH  038%=      5-min Rain = 0
KCA1 131832Z 36006KT 12/M02 A2983 RMK A01 T01181022  RH  037%=      5-min Rain = 0
KCA1 131833Z 30006KT 12/M02 A2983 RMK A01 T01181022  RH  038%=      5-min Rain = 0
KCA1 131834Z 29004KT 12/M02 A2982 RMK A01 T01191022  RH  037%=      5-min Rain = 0
KCA1 131835Z 29003KT 12/M02 A2982 RMK A01 T01191023  RH  037%=      5-min Rain = 0
KCA1 131836Z 29006KT 12/M02 A2982 RMK A01 T01201022  RH  037%=      5-min Rain = 0
KCA1 131837Z 30005KT 12/M02 A2982 RMK A01 T01221018  RH  038%=      5-min Rain = 0
KCA1 131838Z 29008KT 13/M02 A2982 RMK A01 T01251019  RH  037%=      5-min Rain = 0
KCA1 131839Z 31007KT 12/M02 A2982 RMK A01 T01241021  RH  036%=      5-min Rain = 0
KCA1 131840Z 31004G9KT 12/M02 A2982 RMK A01 T01231020  RH  037%=      5-min Rain = 0
KCA1 131841Z 31006KT 12/M02 A2982 RMK A01 T01231019  RH  037%=      5-min Rain = 0
KCA1 131842Z 29006KT 12/M02 A2982 RMK A01 T01221021  RH  037%=      5-min Rain = 0
KCA1 131843Z 29006KT 12/M02 A2982 RMK A01 T01221021  RH  037%=      5-min Rain = 0
KCA1 131844Z 30008KT 12/M02 A2982 RMK A01 T01221020  RH  037%=      5-min Rain = 0
KCA1 131845Z 30008KT 12/M02 A2982 RMK A01 T01231019  RH  037%=      5-min Rain = 0
KCA1 131846Z 31008KT 12/M02 A2982 RMK A01 T01241018  RH  037%=      5-min Rain = 0
KCA1 131847Z 32008KT 13/M02 A2982 RMK A01 T01261018  RH  037%=      5-min Rain = 0
KCA1 131848Z 31006KT 13/M02 A2982 RMK A01 T01251020  RH  036%=      5-min Rain = 0
KCA1 131849Z 31004KT 12/M02 A2982 RMK A01 T01241020  RH  037%=      5-min Rain = 0
KCA1 131850Z 33003KT 12/M02 A2982 RMK A01 T01221020  RH  037%=      5-min Rain = 0
KCA1 131851Z 30003KT 12/M02 A2982 RMK A01 T01231017  RH  038%=      5-min Rain = 0
KCA1 131852Z 33005KT 13/M02 A2982 RMK A01 T01271016  RH  037%=      5-min Rain = 0
KCA1 131853Z 34002KT 13/M02 A2982 RMK A01 T01271019  RH  036%=      5-min Rain = 0
KCA1 131854Z 31002KT 13/M02 A2982 RMK A01 T01261018  RH  037%=      5-min Rain = 0
KCA1 131855Z 30005KT 13/M02 A2982 RMK A01 T01281017  RH  036%=      5-min Rain = 0
KCA1 131856Z 31006KT 13/M02 A2982 RMK A01 T01321015  RH  036%=      5-min Rain = 0
KCA1 131857Z 32005KT 13/M02 A2981 RMK A01 T01331017  RH  035%=      5-min Rain = 0
KCA1 131858Z 34005KT 13/M02 A2981 RMK A01 T01321017  RH  035%=      5-min Rain = 0
KCA1 131859Z 31008KT 13/M02 A2981 RMK A01 T01331017  RH  035%=      5-min Rain = 0
KCA1 131900Z 30007KT 13/M02 A2981 RMK A01 T01331018  RH  035%=      5-min Rain = 0
KCA1 131901Z 30006KT 13/M02 A2981 RMK A01 T01311019  RH  035%=      5-min Rain = 0
KCA1 131902Z 32004KT 13/M02 A2981 RMK A01 T01311019  RH  035%=      5-min Rain = 0
KCA1 131903Z 28001KT 13/M02 A2981 RMK A01 T01301020  RH  035%=      5-min Rain = 0
KCA1 131904Z 31003KT 13/M02 A2981 RMK A01 T01301020  RH  035%=      5-min Rain = 0
KCA1 131905Z 30002KT 13/M02 A2981 RMK A01 T01291020  RH  036%=      5-min Rain = 0
KCA1 131906Z 34002KT 13/M02 A2981 RMK A01 T01291019  RH  036%=      5-min Rain = 0
KCA1 131907Z 34003KT 13/M02 A2981 RMK A01 T01301020  RH  035%=      5-min Rain = 0
KCA1 131908Z 35006KT 13/M02 A2981 RMK A01 T01311020  RH  035%=      5-min Rain = 0
KCA1 131909Z 35006KT 13/M02 A2981 RMK A01 T01321020  RH  035%=      5-min Rain = 0
KCA1 131910Z 35006KT 13/M02 A2981 RMK A01 T01331021  RH  034%=      5-min Rain = 0
KCA1 131911Z 35006KT 13/M02 A2981 RMK A01 T01321022  RH  034%=      5-min Rain = 0
KCA1 131912Z 01004KT 13/M02 A2981 RMK A01 T01311024  RH  034%=      5-min Rain = 0
KCA1 131913Z 34005KT 13/M02 A2981 RMK A01 T01321020  RH  035%=      5-min Rain = 0
KCA1 131914Z 33004KT 14/M02 A2981 RMK A01 T01351018  RH  035%=      5-min Rain = 0
KCA1 131915Z 33005KT 14/M02 A2981 RMK A01 T01371019  RH  034%=      5-min Rain = 0
KCA1 131916Z 34006KT 14/M02 A2981 RMK A01 T01371021  RH  033%=      5-min Rain = 0
KCA1 131917Z 00006KT 14/M02 A2981 RMK A01 T01351022  RH  034%=      5-min Rain = 0
KCA1 131918Z 00005KT 14/M02 A2981 RMK A01 T01351021  RH  034%=      5-min Rain = 0
KCA1 131919Z 34007KT 13/M02 A2981 RMK A01 T01341023  RH  034%=      5-min Rain = 0
KCA1 131920Z 34009KT 13/M02 A2981 RMK A01 T01341021  RH  034%=      5-min Rain = 0
KCA1 131921Z 34007KT 13/M02 A2982 RMK A01 T01341021  RH  034%=      5-min Rain = 0
KCA1 131922Z 33005KT 13/M02 A2982 RMK A01 T01331019  RH  035%=      5-min Rain = 0
KCA1 131923Z 33007KT 13/M02 A2982 RMK A01 T01331019  RH  035%=      5-min Rain = 0
KCA1 131924Z 32007KT 14/M02 A2982 RMK A01 T01351020  RH  034%=      5-min Rain = 0
KCA1 131925Z 34007KT 14/M02 A2982 RMK A01 T01361020  RH  034%=      5-min Rain = 0
KCA1 131926Z 34008KT 14/M02 A2982 RMK A01 T01371019  RH  034%=      5-min Rain = 0
KCA1 131927Z 33007KT 14/M02 A2982 RMK A01 T01371020  RH  034%=      5-min Rain = 0
KCA1 131928Z 34006KT 14/M02 A2981 RMK A01 T01351022  RH  034%=      5-min Rain = 0
KCA1 131929Z 34005KT 13/M02 A2981 RMK A01 T01331023  RH  034%=      5-min Rain = 0
KCA1 131930Z 32007KT 13/M02 A2981 RMK A01 T01321022  RH  034%=      5-min Rain = 0
KCA1 131931Z 33007KT 13/M02 A2981 RMK A01 T01341019  RH  035%=      5-min Rain = 0
KCA1 131932Z 33008KT 14/M02 A2981 RMK A01 T01351018  RH  034%=      5-min Rain = 0
KCA1 131933Z 33007KT 14/M02 A2981 RMK A01 T01371018  RH  034%=      5-min Rain = 0
KCA1 131934Z 32008KT 14/M02 A2981 RMK A01 T01381017  RH  034%=      5-min Rain = 0
KCA1 131935Z 32007KT 14/M02 A2981 RMK A01 T01391018  RH  034%=      5-min Rain = 0
KCA1 131936Z 32006KT 14/M02 A2981 RMK A01 T01381019  RH  034%=      5-min Rain = 0
KCA1 131937Z 32007KT 14/M02 A2981 RMK A01 T01381018  RH  034%=      5-min Rain = 0
KCA1 131938Z 31007KT 14/M02 A2981 RMK A01 T01381018  RH  034%=      5-min Rain = 0
KCA1 131939Z 32006KT 14/M02 A2981 RMK A01 T01401016  RH  034%=      5-min Rain = 0
KCA1 131940Z 31004KT 14/M02 A2981 RMK A01 T01401018  RH  034%=      5-min Rain = 0
KCA1 131941Z 32003KT 14/M02 A2981 RMK A01 T01381020  RH  033%=      5-min Rain = 0
KCA1 131942Z 30007KT 14/M02 A2981 RMK A01 T01381018  RH  034%=      5-min Rain = 0
KCA1 131943Z 34008KT 14/M02 A2981 RMK A01 T01411015  RH  034%=      5-min Rain = 0
KCA1 131944Z 32007KT 14/M02 A2981 RMK A01 T01431015  RH  034%=      5-min Rain = 0
KCA1 131945Z 33007KT 14/M02 A2981 RMK A01 T01431018  RH  033%=      5-min Rain = 0
KCA1 131946Z 33007KT 14/M02 A298 RMK A01 T01421018  RH  033%=      5-min Rain = 0
KCA1 131947Z 33006KT 14/M02 A298 RMK A01 T01421018  RH  033%=      5-min Rain = 0
KCA1 131948Z 33007KT 14/M02 A298 RMK A01 T01411021  RH  033%=      5-min Rain = 0
KCA1 131949Z 31006KT 14/M02 A298 RMK A01 T01401020  RH  033%=      5-min Rain = 0
KCA1 131950Z 32005KT 14/M02 A298 RMK A01 T01411020  RH  033%=      5-min Rain = 0
KCA1 131951Z 31005KT 14/M02 A298 RMK A01 T01411021  RH  033%=      5-min Rain = 0
KCA1 131952Z 33007KT 14/M02 A2981 RMK A01 T01431019  RH  033%=      5-min Rain = 0
KCA1 131953Z 35007KT 15/M02 A2981 RMK A01 T01451019  RH  032%=      5-min Rain = 0
KCA1 131954Z 34006KT 15/M02 A2981 RMK A01 T01461021  RH  032%=      5-min Rain = 0
KCA1 131955Z 34008KT 15/M02 A298 RMK A01 T01461020  RH  032%=      5-min Rain = 0
KCA1 131956Z 34006KT 15/M02 A298 RMK A01 T01461021  RH  031%=      5-min Rain = 0
KCA1 131957Z 34002KT 15/M02 A298 RMK A01 T01451023  RH  031%=      5-min Rain = 0
KCA1 131958Z 34008KT 15/M02 A298 RMK A01 T01451022  RH  032%=      5-min Rain = 0
KCA1 131959Z 34007KT 15/M02 A298 RMK A01 T01461021  RH  032%=      5-min Rain = 0
KCA1 132000Z 33008KT 15/M02 A2981 RMK A01 T01471021  RH  032%=      5-min Rain = 0
KCA1 132001Z 33007KT 15/M02 A2981 RMK A01 T01461023  RH  031%=      5-min Rain = 0
KCA1 132002Z 34005KT 14/M02 A2981 RMK A01 T01441023  RH  031%=      5-min Rain = 0
KCA1 132003Z 32006KT 14/M02 A2981 RMK A01 T01441023  RH  032%=      5-min Rain = 0
KCA1 132004Z 32004KT 14/M02 A2981 RMK A01 T01441024  RH  031%=      5-min Rain = 0
KCA1 132005Z 31008KT 14/M03 A2981 RMK A01 T01441025  RH  031%=      5-min Rain = 0
KCA1 132006Z 30008KT 15/M02 A2981 RMK A01 T01451024  RH  031%=      5-min Rain = 0
KCA1 132007Z 31007KT 15/M02 A2981 RMK A01 T01471024  RH  031%=      5-min Rain = 0
KCA1 132008Z 34007KT 15/M02 A2981 RMK A01 T01491022  RH  031%=      5-min Rain = 0
KCA1 132009Z 32005KT 15/M02 A2981 RMK A01 T01491022  RH  031%=      5-min Rain = 0
KCA1 132010Z 32007KT 15/M02 A298 RMK A01 T01501021  RH  031%=      5-min Rain = 0
KCA1 132011Z 33008KT 15/M02 A298 RMK A01 T01501019  RH  031%=      5-min Rain = 0
KCA1 132012Z 33004KT 15/M02 A298 RMK A01 T01491019  RH  031%=      5-min Rain = 0
KCA1 132013Z 32004KT 15/M02 A298 RMK A01 T01491019  RH  032%=      5-min Rain = 0
KCA1 132014Z 35007KT 15/M02 A298 RMK A01 T01491019  RH  031%=      5-min Rain = 0
KCA1 132015Z 00007KT 15/M02 A298 RMK A01 T01511021  RH  031%=      5-min Rain = 0
KCA1 132016Z 01004KT 15/M02 A298 RMK A01 T01511022  RH  030%=      5-min Rain = 0
KCA1 132017Z 01004KT 15/M02 A298 RMK A01 T01511022  RH  030%=      5-min Rain = 0
KCA1 132018Z 00003KT 15/M02 A298 RMK A01 T01491022  RH  031%=      5-min Rain = 0
KCA1 132019Z 35008KT 15/M02 A298 RMK A01 T01491022  RH  031%=      5-min Rain = 0
KCA1 132020Z 35008KT 15/M02 A298 RMK A01 T01501024  RH  030%=      5-min Rain = 0
KCA1 132021Z 36006KT 15/M03 A298 RMK A01 T01501025  RH  030%=      5-min Rain = 0
KCA1 132022Z 33008KT 15/M02 A298 RMK A01 T01491024  RH  030%=      5-min Rain = 0
KCA1 132023Z 36007KT 15/M02 A298 RMK A01 T01501024  RH  030%=      5-min Rain = 0
KCA1 132024Z 33006KT 15/M03 A298 RMK A01 T01501025  RH  030%=      5-min Rain = 0
KCA1 132025Z 35005KT 15/M03 A298 RMK A01 T01491026  RH  030%=      5-min Rain = 0
KCA1 132026Z 00004KT 15/M02 A298 RMK A01 T01491024  RH  030%=      5-min Rain = 0
KCA1 132027Z 01006KT 15/M02 A298 RMK A01 T01491024  RH  030%=      5-min Rain = 0
KCA1 132028Z 02008KT 15/M03 A298 RMK A01 T01501026  RH  030%=      5-min Rain = 0
KCA1 132029Z 01008KT 15/M03 A298 RMK A01 T01501027  RH  029%=      5-min Rain = 0
KCA1 132030Z 01008KT 15/M03 A298 RMK A01 T01501026  RH  030%=      5-min Rain = 0
KCA1 132031Z 01007KT 15/M03 A298 RMK A01 T01491027  RH  030%=      5-min Rain = 0
KCA1 132032Z 36007KT 15/M03 A298 RMK A01 T01491028  RH  029%=      5-min Rain = 0
KCA1 132033Z 01007KT 15/M03 A298 RMK A01 T01491029  RH  029%=      5-min Rain = 0
KCA1 132034Z 01006KT 15/M03 A298 RMK A01 T01491028  RH  029%=      5-min Rain = 0
KCA1 132035Z 00006KT 15/M03 A298 RMK A01 T01491026  RH  030%=      5-min Rain = 0
KCA1 132036Z 35006KT 15/M03 A298 RMK A01 T01501027  RH  029%=      5-min Rain = 0
KCA1 132037Z 01007KT 15/M03 A298 RMK A01 T01501025  RH  030%=      5-min Rain = 0
KCA1 132038Z 01006KT 15/M02 A298 RMK A01 T01511024  RH  030%=      5-min Rain = 0
KCA1 132039Z 01005KT 15/M03 A298 RMK A01 T01511025  RH  030%=      5-min Rain = 0
KCA1 132040Z 01004KT 15/M03 A298 RMK A01 T01511025  RH  030%=      5-min Rain = 0
KCA1 132041Z 01003KT 15/M03 A298 RMK A01 T01501025  RH  030%=      5-min Rain = 0
KCA1 132042Z 01004KT 15/M03 A298 RMK A01 T01511025  RH  030%=      5-min Rain = 0
KCA1 132043Z 36007KT 15/M03 A298 RMK A01 T01521025  RH  030%=      5-min Rain = 0
KCA1 132044Z 00005KT 15/M03 A298 RMK A01 T01531027  RH  029%=      5-min Rain = 0
KCA1 132045Z 03006KT 15/M03 A298 RMK A01 T01521026  RH  029%=      5-min Rain = 0
KCA1 132046Z 02004KT 15/M03 A298 RMK A01 T01501028  RH  029%=      5-min Rain = 0
KCA1 132047Z 02006KT 15/M03 A298 RMK A01 T01501027  RH  029%=      5-min Rain = 0
KCA1 132048Z 03007KT 15/M03 A298 RMK A01 T01521025  RH  029%=      5-min Rain = 0
KCA1 132049Z 02005KT 15/M03 A298 RMK A01 T01531026  RH  029%=      5-min Rain = 0
KCA1 132050Z 02006KT 15/M03 A298 RMK A01 T01541025  RH  029%=      5-min Rain = 0
KCA1 132051Z 02006KT 15/M03 A298 RMK A01 T01541026  RH  029%=      5-min Rain = 0
KCA1 132052Z 01008KT 15/M03 A298 RMK A01 T01541026  RH  029%=      5-min Rain = 0
KCA1 132053Z 03007KT 15/M03 A298 RMK A01 T01541027  RH  029%=      5-min Rain = 0
KCA1 132054Z 04007KT 15/M03 A298 RMK A01 T01541028  RH  029%=      5-min Rain = 0
KCA1 132055Z 03006KT 15/M03 A298 RMK A01 T01531028  RH  029%=      5-min Rain = 0
KCA1 132056Z 03007KT 15/M03 A298 RMK A01 T01531027  RH  029%=      5-min Rain = 0
KCA1 132057Z 00007KT 15/M03 A298 RMK A01 T01521028  RH  029%=      5-min Rain = 0
KCA1 132058Z 36007KT 15/M03 A298 RMK A01 T01521027  RH  029%=      5-min Rain = 0
KCA1 132059Z 02006KT 15/M03 A298 RMK A01 T01521028  RH  029%=      5-min Rain = 0
KCA1 132100Z 04006KT 15/M03 A298 RMK A01 T01531028  RH  029%=      5-min Rain = 0
KCA1 132101Z 04006KT 15/M03 A298 RMK A01 T01541029  RH  028%=      5-min Rain = 0
KCA1 132102Z 04007KT 16/M03 A298 RMK A01 T01551029  RH  028%=      5-min Rain = 0
KCA1 132103Z 02009KT 16/M03 A298 RMK A01 T01551030  RH  028%=      5-min Rain = 0
KCA1 132104Z 00007KT 15/M03 A298 RMK A01 T01531030  RH  028%=      5-min Rain = 0
KCA1 132105Z 36007KT 15/M03 A298 RMK A01 T01531028  RH  028%=      5-min Rain = 0
KCA1 132106Z 00007KT 15/M03 A298 RMK A01 T01541030  RH  028%=      5-min Rain = 0
KCA1 132107Z 01004KT 16/M03 A298 RMK A01 T01551030  RH  028%=      5-min Rain = 0
KCA1 132108Z 03005KT 16/M03 A298 RMK A01 T01551030  RH  028%=      5-min Rain = 0
KCA1 132109Z 01005KT 16/M03 A298 RMK A01 T01571026  RH  028%=      5-min Rain = 0
KCA1 132110Z 04005KT 16/M03 A298 RMK A01 T01601026  RH  028%=      5-min Rain = 0
KCA1 132111Z 03003KT 16/M03 A298 RMK A01 T01601028  RH  027%=      5-min Rain = 0
KCA1 132112Z 05004KT 16/M03 A298 RMK A01 T01601026  RH  028%=      5-min Rain = 0
KCA1 132113Z 06005KT 16/M03 A298 RMK A01 T01611027  RH  028%=      5-min Rain = 0
KCA1 132114Z 03004KT 16/M03 A298 RMK A01 T01601026  RH  028%=      5-min Rain = 0
KCA1 132115Z 00004KT 16/M03 A298 RMK A01 T01601026  RH  028%=      5-min Rain = 0
KCA1 132116Z 00005KT 16/M03 A298 RMK A01 T01601026  RH  028%=      5-min Rain = 0
KCA1 132117Z 00005KT 16/M03 A298 RMK A01 T01601026  RH  028%=      5-min Rain = 0
KCA1 132118Z 36002KT 16/M03 A298 RMK A01 T01591028  RH  027%=      5-min Rain = 0
KCA1 132119Z 02005KT 16/M03 A298 RMK A01 T01591028  RH  028%=      5-min Rain = 0
KCA1 132120Z 03005KT 16/M03 A298 RMK A01 T01591027  RH  028%=      5-min Rain = 0
KCA1 132121Z 03005KT 16/M03 A298 RMK A01 T01591028  RH  027%=      5-min Rain = 0
KCA1 132122Z 03004KT 16/M03 A298 RMK A01 T01591029  RH  027%=      5-min Rain = 0
KCA1 132123Z 04003KT 16/M03 A298 RMK A01 T01581030  RH  027%=      5-min Rain = 0
KCA1 132124Z 03002KT 16/M03 A298 RMK A01 T01571030  RH  027%=      5-min Rain = 0
KCA1 132125Z 07002KT 16/M03 A298 RMK A01 T01571029  RH  028%=      5-min Rain = 0
KCA1 132126Z 03002KT 16/M03 A298 RMK A01 T01571029  RH  028%=      5-min Rain = 0
KCA1 132127Z 01003KT 16/M03 A298 RMK A01 T01571029  RH  028%=      5-min Rain = 0
KCA1 132128Z 05003KT 16/M03 A298 RMK A01 T01581028  RH  028%=      5-min Rain = 0
KCA1 132129Z 05004KT 16/M03 A298 RMK A01 T01581027  RH  028%=      5-min Rain = 0
KCA1 132130Z 04004KT 16/M03 A298 RMK A01 T01581027  RH  028%=      5-min Rain = 0
KCA1 132131Z 03003KT 16/M03 A298 RMK A01 T01571028  RH  028%=      5-min Rain = 0
KCA1 132132Z 03004KT 16/M03 A2981 RMK A01 T01571028  RH  028%=      5-min Rain = 0
KCA1 132133Z 03006KT 16/M03 A2981 RMK A01 T01571028  RH  028%=      5-min Rain = 0
KCA1 132134Z 04005KT 16/M03 A2981 RMK A01 T01571029  RH  028%=      5-min Rain = 0
KCA1 132135Z 03005KT 16/M03 A2981 RMK A01 T01571028  RH  028%=      5-min Rain = 0
KCA1 132136Z 04004KT 16/M03 A2981 RMK A01 T01571029  RH  028%=      5-min Rain = 0
KCA1 132137Z 04006KT 16/M03 A2981 RMK A01 T01581027  RH  028%=      5-min Rain = 0
KCA1 132138Z 03005KT 16/M03 A2981 RMK A01 T01581028  RH  028%=      5-min Rain = 0
KCA1 132139Z 02003KT 16/M03 A2981 RMK A01 T01571028  RH  028%=      5-min Rain = 0
KCA1 132140Z 36003KT 16/M03 A2981 RMK A01 T01571028  RH  028%=      5-min Rain = 0
KCA1 132141Z 03003KT 16/M03 A2981 RMK A01 T01571028  RH  028%=      5-min Rain = 0
KCA1 132142Z 04001KT 16/M03 A2981 RMK A01 T01571028  RH  028%=      5-min Rain = 0
KCA1 132143Z 00004KT 16/M03 A2981 RMK A01 T01581028  RH  028%=      5-min Rain = 0
KCA1 132144Z 36005KT 16/M03 A2981 RMK A01 T01591029  RH  027%=      5-min Rain = 0
KCA1 132145Z 34005KT 16/M03 A2981 RMK A01 T01601030  RH  027%=      5-min Rain = 0
KCA1 132146Z 34004KT 16/M03 A2981 RMK A01 T01601029  RH  027%=      5-min Rain = 0
KCA1 132147Z 36003KT 16/M03 A2981 RMK A01 T01591029  RH  027%=      5-min Rain = 0
KCA1 132148Z 03004KT 16/M03 A2981 RMK A01 T01591028  RH  027%=      5-min Rain = 0
KCA1 132149Z 02003KT 16/M03 A2981 RMK A01 T01591028  RH  027%=      5-min Rain = 0
KCA1 132150Z 02002KT 16/M03 A2981 RMK A01 T01581029  RH  028%=      5-min Rain = 0
KCA1 132151Z 02003KT 16/M03 A2981 RMK A01 T01591027  RH  028%=      5-min Rain = 0
KCA1 132152Z 01003KT 16/M03 A2981 RMK A01 T01601026  RH  028%=      5-min Rain = 0
KCA1 132153Z 01004KT 16/M03 A2981 RMK A01 T01611027  RH  027%=      5-min Rain = 0
KCA1 132154Z 01005KT 16/M03 A2981 RMK A01 T01611029  RH  027%=      5-min Rain = 0
KCA1 132155Z 01006KT 16/M03 A2981 RMK A01 T01611028  RH  027%=      5-min Rain = 0
KCA1 132156Z 00007KT 16/M03 A2981 RMK A01 T01601028  RH  027%=      5-min Rain = 0
KCA1 132157Z 01007KT 16/M03 A2981 RMK A01 T01591029  RH  027%=      5-min Rain = 0
KCA1 132158Z 00005KT 16/M03 A2981 RMK A01 T01581030  RH  027%=      5-min Rain = 0
KCA1 132159Z 02006KT 16/M03 A2981 RMK A01 T01571029  RH  028%=      5-min Rain = 0
KCA1 132200Z 01006KT 16/M03 A2982 RMK A01 T01581027  RH  028%=      5-min Rain = 0
KCA1 132201Z 00004KT 16/M03 A2982 RMK A01 T01581026  RH  028%=      5-min Rain = 0
KCA1 132202Z 01004KT 16/M03 A2982 RMK A01 T01591028  RH  028%=      5-min Rain = 0
KCA1 132203Z 36003KT 16/M03 A2982 RMK A01 T01591029  RH  027%=      5-min Rain = 0
KCA1 132204Z 01003KT 16/M03 A2982 RMK A01 T01591029  RH  027%=      5-min Rain = 0
KCA1 132205Z 01004KT 16/M03 A2982 RMK A01 T01591029  RH  027%=      5-min Rain = 0
KCA1 132206Z 03005KT 16/M03 A2982 RMK A01 T01591029  RH  027%=      5-min Rain = 0
KCA1 132207Z 03006KT 16/M03 A2982 RMK A01 T01591028  RH  028%=      5-min Rain = 0
KCA1 132208Z 03007KT 16/M03 A2982 RMK A01 T01581028  RH  028%=      5-min Rain = 0
KCA1 132209Z 03006KT 16/M03 A2982 RMK A01 T01571028  RH  028%=      5-min Rain = 0
KCA1 132210Z 03005KT 16/M03 A2982 RMK A01 T01571029  RH  028%=      5-min Rain = 0
KCA1 132211Z 03005KT 16/M03 A2982 RMK A01 T01571028  RH  028%=      5-min Rain = 0
KCA1 132212Z 01004KT 16/M03 A2982 RMK A01 T01571027  RH  028%=      5-min Rain = 0
KCA1 132213Z 02006KT 16/M03 A2982 RMK A01 T01571028  RH  028%=      5-min Rain = 0
KCA1 132214Z 03005KT 16/M03 A2982 RMK A01 T01571029  RH  028%=      5-min Rain = 0
KCA1 132215Z 02005KT 16/M03 A2982 RMK A01 T01571029  RH  028%=      5-min Rain = 0
KCA1 132216Z 02005KT 16/M03 A2982 RMK A01 T01571028  RH  028%=      5-min Rain = 0
KCA1 132217Z 01004KT 16/M03 A2982 RMK A01 T01571028  RH  028%=      5-min Rain = 0
KCA1 132218Z 01004KT 16/M03 A2982 RMK A01 T01571029  RH  028%=      5-min Rain = 0
KCA1 132219Z 01004KT 16/M03 A2982 RMK A01 T01581029  RH  028%=      5-min Rain = 0
KCA1 132220Z 02004KT 16/M03 A2983 RMK A01 T01581029  RH  028%=      5-min Rain = 0
KCA1 132221Z 01004KT 16/M03 A2983 RMK A01 T01581028  RH  028%=      5-min Rain = 0
KCA1 132222Z 02005KT 16/M03 A2983 RMK A01 T01581027  RH  028%=      5-min Rain = 0
KCA1 132223Z 01004KT 16/M03 A2983 RMK A01 T01581027  RH  028%=      5-min Rain = 0
KCA1 132224Z 01004KT 16/M03 A2983 RMK A01 T01581027  RH  028%=      5-min Rain = 0
KCA1 132225Z 02006KT 16/M03 A2983 RMK A01 T01581028  RH  028%=      5-min Rain = 0
KCA1 132226Z 02006KT 16/M03 A2983 RMK A01 T01571028  RH  028%=      5-min Rain = 0
KCA1 132227Z 02004KT 16/M03 A2983 RMK A01 T01571028  RH  028%=      5-min Rain = 0
KCA1 132228Z 02004KT 16/M03 A2983 RMK A01 T01561029  RH  028%=      5-min Rain = 0
KCA1 132229Z 35004KT 16/M03 A2983 RMK A01 T01561027  RH  028%=      5-min Rain = 0
KCA1 132230Z 00005KT 16/M03 A2983 RMK A01 T01561027  RH  028%=      5-min Rain = 0
KCA1 132231Z 01004KT 16/M03 A2983 RMK A01 T01561027  RH  028%=      5-min Rain = 0
KCA1 132232Z 36005KT 16/M03 A2983 RMK A01 T01561027  RH  028%=      5-min Rain = 0
KCA1 132233Z 01004KT 16/M03 A2983 RMK A01 T01551028  RH  028%=      5-min Rain = 0
KCA1 132234Z 36005KT 16/M03 A2984 RMK A01 T01551028  RH  028%=      5-min Rain = 0
KCA1 132235Z 00005KT 16/M03 A2984 RMK A01 T01551028  RH  028%=      5-min Rain = 0
KCA1 132236Z 01005KT 16/M03 A2984 RMK A01 T01551028  RH  028%=      5-min Rain = 0
KCA1 132237Z 01004KT 16/M03 A2984 RMK A01 T01551028  RH  028%=      5-min Rain = 0
KCA1 132238Z 01005KT 15/M03 A2984 RMK A01 T01541028  RH  028%=      5-min Rain = 0
KCA1 132239Z 00005KT 15/M03 A2984 RMK A01 T01541029  RH  028%=      5-min Rain = 0
KCA1 132240Z 02004KT 15/M03 A2984 RMK A01 T01541029  RH  028%=      5-min Rain = 0
KCA1 132241Z 02003KT 15/M03 A2984 RMK A01 T01541029  RH  028%=      5-min Rain = 0
KCA1 132242Z 02004KT 15/M03 A2984 RMK A01 T01541028  RH  028%=      5-min Rain = 0
KCA1 132243Z 02004KT 15/M03 A2984 RMK A01 T01541028  RH  028%=      5-min Rain = 0
KCA1 132244Z 02004KT 15/M03 A2984 RMK A01 T01531029  RH  028%=      5-min Rain = 0
KCA1 132245Z 02004KT 15/M03 A2984 RMK A01 T01531028  RH  029%=      5-min Rain = 0
KCA1 132246Z 02004KT 15/M03 A2984 RMK A01 T01531028  RH  029%=      5-min Rain = 0
KCA1 132247Z 02003KT 15/M03 A2984 RMK A01 T01531028  RH  029%=      5-min Rain = 0
KCA1 132248Z 02003KT 15/M03 A2984 RMK A01 T01531028  RH  029%=      5-min Rain = 0
KCA1 132249Z 03002KT 15/M03 A2984 RMK A01 T01531028  RH  029%=      5-min Rain = 0
KCA1 132250Z 03002KT 15/M03 A2984 RMK A01 T01531028  RH  029%=      5-min Rain = 0
KCA1 132251Z 04002KT 15/M03 A2984 RMK A01 T01531028  RH  029%=      5-min Rain = 0
KCA1 132252Z 04002KT 15/M03 A2984 RMK A01 T01521029  RH  029%=      5-min Rain = 0
KCA1 132253Z 04002KT 15/M03 A2984 RMK A01 T01521029  RH  029%=      5-min Rain = 0
KCA1 132254Z 04002KT 15/M03 A2984 RMK A01 T01521029  RH  029%=      5-min Rain = 0
KCA1 132255Z 04003KT 15/M03 A2984 RMK A01 T01521029  RH  029%=      5-min Rain = 0
KCA1 132256Z 04003KT 15/M03 A2984 RMK A01 T01511029  RH  029%=      5-min Rain = 0
KCA1 132257Z 04003KT 15/M03 A2984 RMK A01 T01511029  RH  029%=      5-min Rain = 0
KCA1 132258Z 04002KT 15/M03 A2984 RMK A01 T01511029  RH  029%=      5-min Rain = 0
KCA1 132259Z 04002KT 15/M03 A2983 RMK A01 T01501029  RH  029%=      5-min Rain = 0
KCA1 132300Z 04002KT 15/M03 A2983 RMK A01 T01501029  RH  029%=      5-min Rain = 0
KCA1 132301Z 05002KT 15/M03 A2983 RMK A01 T01491029  RH  029%=      5-min Rain = 0
KCA1 132302Z 05002KT 15/M03 A2983 RMK A01 T01491029  RH  029%=      5-min Rain = 0
KCA1 132303Z 05003KT 15/M03 A2983 RMK A01 T01481029  RH  029%=      5-min Rain = 0
KCA1 132304Z 05003KT 15/M03 A2983 RMK A01 T01481028  RH  029%=      5-min Rain = 0
KCA1 132305Z 04003KT 15/M03 A2983 RMK A01 T01471028  RH  030%=      5-min Rain = 0
KCA1 132306Z 05003KT 15/M03 A2983 RMK A01 T01461028  RH  030%=      5-min Rain = 0
KCA1 132307Z 04003KT 15/M03 A2983 RMK A01 T01461029  RH  030%=      5-min Rain = 0
KCA1 132308Z 04004KT 15/M03 A2983 RMK A01 T01451029  RH  030%=      5-min Rain = 0
KCA1 132309Z 04004KT 14/M03 A2983 RMK A01 T01431029  RH  030%=      5-min Rain = 0
KCA1 132310Z 05005KT 14/M03 A2983 RMK A01 T01421029  RH  030%=      5-min Rain = 0
KCA1 132311Z 05005KT 14/M03 A2982 RMK A01 T01401030  RH  031%=      5-min Rain = 0
KCA1 132312Z 05005KT 14/M03 A2982 RMK A01 T01381030  RH  031%=      5-min Rain = 0
KCA1 132313Z 05005KT 14/M03 A2982 RMK A01 T01371030  RH  031%=      5-min Rain = 0
KCA1 132314Z 05004KT 14/M03 A2982 RMK A01 T01351030  RH  032%=      5-min Rain = 0
KCA1 132315Z 06004KT 13/M03 A2982 RMK A01 T01341030  RH  032%=      5-min Rain = 0
KCA1 132316Z 05004KT 13/M03 A2982 RMK A01 T01321030  RH  032%=      5-min Rain = 0
KCA1 132317Z 06004KT 13/M03 A2983 RMK A01 T01311030  RH  032%=      5-min Rain = 0
KCA1 132318Z 06004KT 13/M03 A2983 RMK A01 T01301031  RH  033%=      5-min Rain = 0
KCA1 132319Z 06004KT 13/M03 A2983 RMK A01 T01291031  RH  033%=      5-min Rain = 0
KCA1 132320Z 05004KT 13/M03 A2983 RMK A01 T01271032  RH  033%=      5-min Rain = 0
KCA1 132321Z 05004KT 13/M03 A2983 RMK A01 T01261032  RH  033%=      5-min Rain = 0
KCA1 132322Z 05004KT 12/M03 A2983 RMK A01 T01241031  RH  034%=      5-min Rain = 0
KCA1 132323Z 05004KT 12/M03 A2983 RMK A01 T01231032  RH  034%=      5-min Rain = 0
KCA1 132324Z 05004KT 12/M03 A2983 RMK A01 T01211032  RH  034%=      5-min Rain = 0
KCA1 132325Z 05005KT 12/M03 A2983 RMK A01 T01211032  RH  034%=      5-min Rain = 0
KCA1 132326Z 05005KT 12/M03 A2983 RMK A01 T01201032  RH  034%=      5-min Rain = 0
KCA1 132327Z 05004KT 12/M03 A2983 RMK A01 T01201032  RH  034%=      5-min Rain = 0
KCA1 132328Z 06004KT 12/M03 A2983 RMK A01 T01201032  RH  035%=      5-min Rain = 0
KCA1 132329Z 06004KT 12/M03 A2983 RMK A01 T01201031  RH  035%=      5-min Rain = 0
KCA1 132330Z 06004KT 12/M03 A2983 RMK A01 T01211031  RH  034%=      5-min Rain = 0
KCA1 132331Z 06004KT 12/M03 A2983 RMK A01 T01211031  RH  034%=      5-min Rain = 0
KCA1 132332Z 06005KT 12/M03 A2983 RMK A01 T01221031  RH  034%=      5-min Rain = 0
KCA1 132333Z 06005KT 12/M03 A2984 RMK A01 T01201032  RH  034%=      5-min Rain = 0
KCA1 132334Z 06005KT 12/M03 A2984 RMK A01 T01181032  RH  035%=      5-min Rain = 0
KCA1 132335Z 06005KT 12/M03 A2984 RMK A01 T01191030  RH  035%=      5-min Rain = 0
KCA1 132336Z 06005KT 12/M03 A2984 RMK A01 T01201030  RH  035%=      5-min Rain = 0
KCA1 132337Z 06004KT 12/M03 A2984 RMK A01 T01201031  RH  035%=      5-min Rain = 0
KCA1 132338Z 06004KT 12/M03 A2984 RMK A01 T01201030  RH  035%=      5-min Rain = 0
KCA1 132339Z 06004KT 12/M03 A2984 RMK A01 T01191031  RH  035%=      5-min Rain = 0
KCA1 132340Z 06004KT 11/M04 A2984 RMK A01 T01131035  RH  035%=      5-min Rain = 0
KCA1 132341Z 06004KT 11/M03 A2984 RMK A01 T01091034  RH  037%=      5-min Rain = 0
KCA1 132342Z 06004KT 11/M03 A2984 RMK A01 T01111031  RH  037%=      5-min Rain = 0
KCA1 132343Z 06004KT 11/M03 A2984 RMK A01 T01141031  RH  036%=      5-min Rain = 0
KCA1 132344Z 06004KT 11/M03 A2984 RMK A01 T01131032  RH  036%=      5-min Rain = 0
KCA1 132345Z 06004KT 11/M03 A2984 RMK A01 T01131031  RH  036%=      5-min Rain = 0
KCA1 132346Z 06004KT 11/M03 A2984 RMK A01 T01131031  RH  036%=      5-min Rain = 0
KCA1 132347Z 06004KT 11/M03 A2984 RMK A01 T01131031  RH  036%=      5-min Rain = 0
KCA1 132348Z 06004KT 11/M03 A2984 RMK A01 T01131031  RH  036%=      5-min Rain = 0
KCA1 132349Z 05004KT 11/M03 A2984 RMK A01 T01111033  RH  036%=      5-min Rain = 0
KCA1 132350Z 05004KT 11/M03 A2984 RMK A01 T01081033  RH  037%=      5-min Rain = 0
KCA1 132351Z 05005KT 11/M03 A2984 RMK A01 T01061033  RH  037%=      5-min Rain = 0
KCA1 132352Z 05005KT 11/M03 A2984 RMK A01 T01051032  RH  038%=      5-min Rain = 0
KCA1 132353Z 05005KT 11/M03 A2984 RMK A01 T01061032  RH  038%=      5-min Rain = 0
KCA1 132354Z 05005KT 11/M03 A2984 RMK A01 T01061032  RH  038%=      5-min Rain = 0
KCA1 132355Z 05006KT 10/M03 A2984 RMK A01 T01031034  RH  038%=      5-min Rain = 0
KCA1 132356Z 05006KT 10/M04 A2984 RMK A01 T00981036  RH  039%=      5-min Rain = 0
KCA1 132357Z 05006KT 09/M04 A2984 RMK A01 T00941036  RH  040%=      5-min Rain = 0
KCA1 132358Z 05006KT 09/M04 A2984 RMK A01 T00911035  RH  041%=      5-min Rain = 0
KCA1 132359Z 05006KT 09/M03 A2984 RMK A01 T00901034  RH  041%=      5-min Rain = 0
KCA1 140000Z 05006KT 09/M03 A2984 RMK A01 T00891034  RH  042%=      5-min Rain = 0
KCA1 140001Z 05006KT 09/M03 A2984 RMK A01 T00881034  RH  042%=      5-min Rain = 0
KCA1 140002Z 05006KT 09/M03 A2984 RMK A01 T00861034  RH  043%=      5-min Rain = 0
KCA1 140003Z 05006KT 09/M03 A2984 RMK A01 T00861033  RH  043%=      5-min Rain = 0
KCA1 140004Z 05007KT 09/M03 A2984 RMK A01 T00861033  RH  043%=      5-min Rain = 0
KCA1 140005Z 05007KT 09/M03 A2984 RMK A01 T00851033  RH  043%=      5-min Rain = 0
KCA1 140006Z 05007KT 09/M03 A2984 RMK A01 T00851033  RH  043%=      5-min Rain = 0
KCA1 140007Z 05007KT 08/M03 A2984 RMK A01 T00841033  RH  043%=      5-min Rain = 0
KCA1 140008Z 05007KT 08/M03 A2984 RMK A01 T00841033  RH  043%=      5-min Rain = 0
KCA1 140009Z 05006KT 08/M03 A2984 RMK A01 T00841033  RH  044%=      5-min Rain = 0
KCA1 140010Z 05006KT 08/M03 A2984 RMK A01 T00831033  RH  044%=      5-min Rain = 0
KCA1 140011Z 05006KT 08/M03 A2984 RMK A01 T00831034  RH  044%=      5-min Rain = 0
KCA1 140012Z 05006KT 08/M03 A2984 RMK A01 T00821034  RH  044%=      5-min Rain = 0
KCA1 140013Z 05006KT 08/M03 A2984 RMK A01 T00801034  RH  044%=      5-min Rain = 0
KCA1 140014Z 05006KT 08/M03 A2984 RMK A01 T00791034  RH  045%=      5-min Rain = 0
KCA1 140015Z 05006KT 08/M03 A2984 RMK A01 T00781034  RH  045%=      5-min Rain = 0
KCA1 140016Z 05006KT 08/M03 A2984 RMK A01 T00771034  RH  045%=      5-min Rain = 0
KCA1 140017Z 05006KT 08/M03 A2984 RMK A01 T00761034  RH  045%=      5-min Rain = 0
KCA1 140018Z 05006KT 08/M03 A2984 RMK A01 T00751034  RH  046%=      5-min Rain = 0
KCA1 140019Z 05006KT 08/M03 A2984 RMK A01 T00751034  RH  046%=      5-min Rain = 0
KCA1 140020Z 06006KT 07/M03 A2984 RMK A01 T00741034  RH  046%=      5-min Rain = 0
KCA1 140021Z 06006KT 07/M03 A2984 RMK A01 T00741034  RH  046%=      5-min Rain = 0
KCA1 140022Z 06006KT 07/M03 A2984 RMK A01 T00741034  RH  046%=      5-min Rain = 0
KCA1 140023Z 06006KT 07/M03 A2984 RMK A01 T00731034  RH  046%=      5-min Rain = 0
KCA1 140024Z 06006KT 07/M03 A2984 RMK A01 T00731034  RH  047%=      5-min Rain = 0
KCA1 140025Z 06006KT 07/M03 A2984 RMK A01 T00721034  RH  047%=      5-min Rain = 0
KCA1 140026Z 06006KT 07/M03 A2984 RMK A01 T00721034  RH  047%=      5-min Rain = 0
KCA1 140027Z 05006KT 07/M03 A2984 RMK A01 T00711034  RH  047%=      5-min Rain = 0
KCA1 140028Z 05006KT 07/M03 A2984 RMK A01 T00701034  RH  047%=      5-min Rain = 0
KCA1 140029Z 05006KT 07/M03 A2984 RMK A01 T00701034  RH  048%=      5-min Rain = 0
KCA1 140030Z 06006KT 07/M03 A2984 RMK A01 T00691034  RH  048%=      5-min Rain = 0
KCA1 140031Z 06006KT 07/M03 A2984 RMK A01 T00681034  RH  048%=      5-min Rain = 0
KCA1 140032Z 06006KT 07/M03 A2984 RMK A01 T00681033  RH  048%=      5-min Rain = 0
KCA1 140033Z 06006KT 07/M03 A2984 RMK A01 T00671034  RH  049%=      5-min Rain = 0
KCA1 140034Z 06006KT 07/M03 A2984 RMK A01 T00671034  RH  049%=      5-min Rain = 0
KCA1 140035Z 06006KT 07/M03 A2984 RMK A01 T00661033  RH  049%=      5-min Rain = 0
KCA1 140036Z 05006KT 07/M03 A2984 RMK A01 T00671033  RH  049%=      5-min Rain = 0
KCA1 140037Z 05006KT 07/M03 A2984 RMK A01 T00671033  RH  049%=      5-min Rain = 0
KCA1 140038Z 05006KT 07/M03 A2984 RMK A01 T00671033  RH  049%=      5-min Rain = 0
KCA1 140039Z 05006KT 07/M03 A2984 RMK A01 T00671032  RH  049%=      5-min Rain = 0
KCA1 140040Z 06007KT 07/M03 A2984 RMK A01 T00671032  RH  049%=      5-min Rain = 0
KCA1 140041Z 05007KT 07/M03 A2984 RMK A01 T00681032  RH  049%=      5-min Rain = 0
KCA1 140042Z 05007KT 07/M03 A2984 RMK A01 T00681032  RH  049%=      5-min Rain = 0
KCA1 140043Z 05007KT 07/M03 A2984 RMK A01 T00681032  RH  049%=      5-min Rain = 0
KCA1 140044Z 05007KT 07/M03 A2984 RMK A01 T00671032  RH  049%=      5-min Rain = 0
KCA1 140045Z 05007KT 07/M03 A2985 RMK A01 T00661033  RH  049%=      5-min Rain = 0
KCA1 140046Z 05007KT 07/M03 A2985 RMK A01 T00651033  RH  049%=      5-min Rain = 0
KCA1 140047Z 04007KT 06/M03 A2985 RMK A01 T00641033  RH  050%=      5-min Rain = 0
KCA1 140048Z 04006KT 06/M03 A2985 RMK A01 T00631033  RH  050%=      5-min Rain = 0
KCA1 140049Z 04006KT 06/M03 A2985 RMK A01 T00631033  RH  050%=      5-min Rain = 0
KCA1 140050Z 04006KT 06/M03 A2985 RMK A01 T00631033  RH  050%=      5-min Rain = 0
KCA1 140051Z 04006KT 06/M03 A2985 RMK A01 T00631033  RH  051%=      5-min Rain = 0
KCA1 140052Z 04006KT 06/M03 A2985 RMK A01 T00621032  RH  051%=      5-min Rain = 0
KCA1 140053Z 04006KT 06/M03 A2985 RMK A01 T00621032  RH  051%=      5-min Rain = 0
KCA1 140054Z 04006KT 06/M03 A2985 RMK A01 T00621032  RH  051%=      5-min Rain = 0
KCA1 140055Z 04006KT 06/M03 A2986 RMK A01 T00611032  RH  051%=      5-min Rain = 0
KCA1 140056Z 04006KT 06/M03 A2986 RMK A01 T00611032  RH  051%=      5-min Rain = 0
KCA1 140057Z 03006KT 06/M03 A2986 RMK A01 T00611032  RH  051%=      5-min Rain = 0
KCA1 140058Z 03006KT 06/M03 A2986 RMK A01 T00601032  RH  051%=      5-min Rain = 0
KCA1 140059Z 04006KT 06/M03 A2986 RMK A01 T00601032  RH  052%=      5-min Rain = 0
KCA1 140100Z 04006KT 06/M03 A2986 RMK A01 T00601032  RH  052%=      5-min Rain = 0
KCA1 140101Z 04006KT 06/M03 A2986 RMK A01 T00591032  RH  052%=      5-min Rain = 0
KCA1 140102Z 04006KT 06/M03 A2986 RMK A01 T00591032  RH  052%=      5-min Rain = 0
KCA1 140103Z 04006KT 06/M03 A2986 RMK A01 T00591031  RH  052%=      5-min Rain = 0
KCA1 140104Z 04006KT 06/M03 A2986 RMK A01 T00601031  RH  052%=      5-min Rain = 0
KCA1 140105Z 04005KT 06/M03 A2986 RMK A01 T00601032  RH  052%=      5-min Rain = 0
KCA1 140106Z 03005KT 06/M03 A2986 RMK A01 T00601032  RH  052%=      5-min Rain = 0
KCA1 140107Z 03006KT 06/M03 A2986 RMK A01 T00601032  RH  052%=      5-min Rain = 0
KCA1 140108Z 03006KT 06/M03 A2986 RMK A01 T00591033  RH  052%=      5-min Rain = 0
KCA1 140109Z 02005KT 06/M03 A2986 RMK A01 T00581033  RH  052%=      5-min Rain = 0
KCA1 140110Z 01004KT 06/M03 A2987 RMK A01 T00561033  RH  052%=      5-min Rain = 0
KCA1 140111Z 01004KT 06/M03 A2987 RMK A01 T00561034  RH  053%=      5-min Rain = 0
KCA1 140112Z 01004KT 06/M03 A2987 RMK A01 T00561033  RH  053%=      5-min Rain = 0
KCA1 140113Z 01003KT 06/M03 A2987 RMK A01 T00561032  RH  053%=      5-min Rain = 0
KCA1 140114Z 34002KT 06/M03 A2987 RMK A01 T00581031  RH  053%=      5-min Rain = 0
KCA1 140115Z 34003KT 06/M03 A2988 RMK A01 T00591030  RH  053%=      5-min Rain = 0
KCA1 140116Z 35003KT 06/M03 A2988 RMK A01 T00611030  RH  052%=      5-min Rain = 0
KCA1 140117Z 35003KT 06/M03 A2988 RMK A01 T00641029  RH  052%=      5-min Rain = 0
KCA1 140118Z 34003KT 07/M03 A2988 RMK A01 T00661028  RH  051%=      5-min Rain = 0
KCA1 140119Z 34003KT 07/M03 A2988 RMK A01 T00701027  RH  050%=      5-min Rain = 0
KCA1 140120Z 33003KT 07/M03 A2989 RMK A01 T00721027  RH  049%=      5-min Rain = 0
KCA1 140121Z 34003KT 07/M03 A2989 RMK A01 T00741028  RH  048%=      5-min Rain = 0
KCA1 140122Z 33003KT 08/M03 A2989 RMK A01 T00751028  RH  048%=      5-min Rain = 0
KCA1 140123Z 33003KT 08/M03 A2988 RMK A01 T00761028  RH  048%=      5-min Rain = 0
KCA1 140124Z 33002KT 08/M03 A2988 RMK A01 T00761029  RH  047%=      5-min Rain = 0
KCA1 140125Z 35002KT 08/M03 A2989 RMK A01 T00751029  RH  048%=      5-min Rain = 0
KCA1 140126Z 35003KT 07/M03 A2989 RMK A01 T00741030  RH  048%=      5-min Rain = 0
KCA1 140127Z 36003KT 07/M03 A2989 RMK A01 T00731030  RH  048%=      5-min Rain = 0
KCA1 140128Z 01003KT 07/M03 A2989 RMK A01 T00731030  RH  048%=      5-min Rain = 0
KCA1 140129Z 02004KT 07/M03 A2989 RMK A01 T00711031  RH  048%=      5-min Rain = 0
KCA1 140130Z 02006KT 07/M03 A2989 RMK A01 T00691032  RH  049%=      5-min Rain = 0
KCA1 140131Z 02006KT 07/M03 A2989 RMK A01 T00671032  RH  049%=      5-min Rain = 0
KCA1 140132Z 02007KT 07/M03 A2989 RMK A01 T00651033  RH  050%=      5-min Rain = 0
KCA1 140133Z 02008KT 06/M03 A2989 RMK A01 T00611034  RH  051%=      5-min Rain = 0
KCA1 140134Z 02008KT 06/M04 A2989 RMK A01 T00571035  RH  052%=      5-min Rain = 0
KCA1 140135Z 02007KT 06/M03 A2989 RMK A01 T00551034  RH  053%=      5-min Rain = 0
KCA1 140136Z 02005KT 05/M03 A2989 RMK A01 T00541033  RH  053%=      5-min Rain = 0
KCA1 140137Z 02007KT 05/M03 A2989 RMK A01 T00541032  RH  054%=      5-min Rain = 0
KCA1 140138Z 01008KT 06/M03 A2989 RMK A01 T00551032  RH  053%=      5-min Rain = 0
KCA1 140139Z 02008KT 06/M03 A2989 RMK A01 T00551032  RH  054%=      5-min Rain = 0
KCA1 140140Z 02007KT 05/M03 A2989 RMK A01 T00541032  RH  054%=      5-min Rain = 0
KCA1 140141Z 01007KT 05/M03 A2989 RMK A01 T00541031  RH  054%=      5-min Rain = 0
KCA1 140142Z 01008KT 06/M03 A2989 RMK A01 T00561030  RH  054%=      5-min Rain = 0
KCA1 140143Z 01008KT 06/M03 A2989 RMK A01 T00571030  RH  053%=      5-min Rain = 0
KCA1 140144Z 01007KT 06/M03 A2989 RMK A01 T00571031  RH  053%=      5-min Rain = 0
KCA1 140145Z 01006KT 06/M03 A2989 RMK A01 T00571031  RH  053%=      5-min Rain = 0
KCA1 140146Z 01008KT 06/M03 A2989 RMK A01 T00571031  RH  053%=      5-min Rain = 0
KCA1 140147Z 01009KT 06/M03 A2989 RMK A01 T00571031  RH  053%=      5-min Rain = 0
KCA1 140148Z 00006KT 06/M03 A2989 RMK A01 T00581030  RH  053%=      5-min Rain = 0
KCA1 140149Z 00006KT 06/M03 A2989 RMK A01 T00621028  RH  053%=      5-min Rain = 0
KCA1 140150Z 01008KT 07/M03 A2989 RMK A01 T00651028  RH  051%=      5-min Rain = 0
KCA1 140151Z 00009KT 06/M03 A2989 RMK A01 T00631031  RH  051%=      5-min Rain = 0
KCA1 140152Z 00008KT 06/M03 A2989 RMK A01 T00621030  RH  052%=      5-min Rain = 0
KCA1 140153Z 00008KT 06/M03 A2989 RMK A01 T00621030  RH  052%=      5-min Rain = 0
KCA1 140154Z 36008KT 06/M03 A2989 RMK A01 T00611031  RH  052%=      5-min Rain = 0
KCA1 140155Z 36008KT 06/M03 A2989 RMK A01 T00591032  RH  052%=      5-min Rain = 0
KCA1 140156Z 01009KT 06/M03 A2989 RMK A01 T00571032  RH  053%=      5-min Rain = 0
KCA1 140157Z 00008KT 05/M03 A2989 RMK A01 T00541033  RH  054%=      5-min Rain = 0
KCA1 140158Z 00008KT 06/M03 A2989 RMK A01 T00551031  RH  054%=      5-min Rain = 0
KCA1 140159Z 00009KT 06/M03 A2989 RMK A01 T00581029  RH  054%=      5-min Rain = 0
KCA1 140200Z 00009KT 06/M03 A2989 RMK A01 T00601029  RH  053%=      5-min Rain = 0
KCA1 140201Z 00009KT 06/M03 A2989 RMK A01 T00611030  RH  052%=      5-min Rain = 0
KCA1 140202Z 01009KT 06/M03 A2989 RMK A01 T00611030  RH  052%=      5-min Rain = 0
KCA1 140203Z 01009KT 06/M03 A2989 RMK A01 T00591031  RH  052%=      5-min Rain = 0
KCA1 140204Z 00009KT 06/M03 A2989 RMK A01 T00581031  RH  053%=      5-min Rain = 0
KCA1 140205Z 00009KT 06/M03 A2989 RMK A01 T00571031  RH  053%=      5-min Rain = 0
KCA1 140206Z 00009KT 06/M03 A2989 RMK A01 T00561031  RH  054%=      5-min Rain = 0
KCA1 140207Z 00010KT 06/M03 A2989 RMK A01 T00561030  RH  054%=      5-min Rain = 0
KCA1 140208Z 01010KT 06/M03 A2989 RMK A01 T00571030  RH  054%=      5-min Rain = 0
KCA1 140209Z 01010KT 06/M03 A2989 RMK A01 T00571030  RH  053%=      5-min Rain = 0
KCA1 140210Z 01010KT 06/M03 A2989 RMK A01 T00581030  RH  053%=      5-min Rain = 0
KCA1 140211Z 01010KT 06/M03 A2989 RMK A01 T00591031  RH  053%=      5-min Rain = 0
KCA1 140212Z 01010KT 06/M03 A2989 RMK A01 T00591031  RH  052%=      5-min Rain = 0
KCA1 140213Z 00010KT 06/M03 A2989 RMK A01 T00581033  RH  052%=      5-min Rain = 0
KCA1 140214Z 00011KT 06/M03 A2989 RMK A01 T00551034  RH  053%=      5-min Rain = 0
KCA1 140215Z 00011KT 05/M03 A2989 RMK A01 T00531034  RH  054%=      5-min Rain = 0
KCA1 140216Z 00010KT 05/M03 A2989 RMK A01 T00541032  RH  054%=      5-min Rain = 0
KCA1 140217Z 36009KT 06/M03 A299 RMK A01 T00561031  RH  053%=      5-min Rain = 0
KCA1 140218Z 00010KT 06/M03 A299 RMK A01 T00561032  RH  053%=      5-min Rain = 0
KCA1 140219Z 00010KT 06/M03 A299 RMK A01 T00571031  RH  053%=      5-min Rain = 0
KCA1 140220Z 00010KT 06/M03 A299 RMK A01 T00581031  RH  053%=      5-min Rain = 0
KCA1 140221Z 00011KT 06/M03 A299 RMK A01 T00581032  RH  052%=      5-min Rain = 0
KCA1 140222Z 01011KT 06/M03 A299 RMK A01 T00571032  RH  053%=      5-min Rain = 0
KCA1 140223Z 01011KT 06/M03 A2989 RMK A01 T00561032  RH  053%=      5-min Rain = 0
KCA1 140224Z 01011KT 06/M03 A2989 RMK A01 T00561032  RH  053%=      5-min Rain = 0
KCA1 140225Z 02011KT 06/M03 A2989 RMK A01 T00561033  RH  053%=      5-min Rain = 0
KCA1 140226Z 02011KT 06/M03 A2989 RMK A01 T00561033  RH  053%=      5-min Rain = 0
KCA1 140227Z 02011KT 06/M03 A2989 RMK A01 T00551032  RH  053%=      5-min Rain = 0
KCA1 140228Z 01011KT 06/M03 A299 RMK A01 T00551032  RH  053%=      5-min Rain = 0
KCA1 140229Z 01012KT 06/M03 A299 RMK A01 T00551031  RH  054%=      5-min Rain = 0
KCA1 140230Z 01012KT 06/M03 A299 RMK A01 T00551030  RH  054%=      5-min Rain = 0
KCA1 140231Z 01011KT 06/M03 A299 RMK A01 T00571029  RH  054%=      5-min Rain = 0
KCA1 140232Z 01012KT 06/M03 A299 RMK A01 T00581029  RH  054%=      5-min Rain = 0
KCA1 140233Z 02012KT 06/M03 A299 RMK A01 T00591028  RH  054%=      5-min Rain = 0
KCA1 140234Z 02012KT 06/M03 A299 RMK A01 T00611027  RH  053%=      5-min Rain = 0
KCA1 140235Z 02012KT 06/M03 A299 RMK A01 T00631026  RH  053%=      5-min Rain = 0
KCA1 140236Z 02011KT 07/M03 A299 RMK A01 T00661026  RH  052%=      5-min Rain = 0
KCA1 140237Z 02010KT 07/M03 A299 RMK A01 T00681025  RH  051%=      5-min Rain = 0
KCA1 140238Z 02010KT 07/M03 A299 RMK A01 T00691025  RH  051%=      5-min Rain = 0
KCA1 140239Z 02010KT 07/M03 A299 RMK A01 T00701025  RH  051%=      5-min Rain = 0
KCA1 140240Z 02011KT 07/M03 A299 RMK A01 T00711025  RH  050%=      5-min Rain = 0
KCA1 140241Z 02010KT 07/M03 A299 RMK A01 T00711025  RH  050%=      5-min Rain = 0
KCA1 140242Z 02011KT 07/M03 A299 RMK A01 T00711025  RH  050%=      5-min Rain = 0
KCA1 140243Z 02011KT 07/M03 A299 RMK A01 T00721025  RH  050%=      5-min Rain = 0
KCA1 140244Z 02010KT 07/M03 A299 RMK A01 T00721025  RH  050%=      5-min Rain = 0
KCA1 140245Z 02011KT 07/M03 A299 RMK A01 T00721025  RH  050%=      5-min Rain = 0
KCA1 140246Z 02010KT 07/M03 A299 RMK A01 T00721025  RH  050%=      5-min Rain = 0
KCA1 140247Z 02011KT 07/M03 A299 RMK A01 T00721025  RH  050%=      5-min Rain = 0
KCA1 140248Z 02010KT 07/M03 A299 RMK A01 T00721025  RH  050%=      5-min Rain = 0
KCA1 140249Z 02011KT 07/M03 A299 RMK A01 T00721025  RH  050%=      5-min Rain = 0
KCA1 140250Z 02010KT 07/M03 A2989 RMK A01 T00711025  RH  050%=      5-min Rain = 0
KCA1 140251Z 03011KT 07/M03 A2989 RMK A01 T00711025  RH  050%=      5-min Rain = 0
KCA1 140252Z 03010KT 07/M03 A2989 RMK A01 T00711025  RH  050%=      5-min Rain = 0
KCA1 140253Z 03010KT 07/M03 A2989 RMK A01 T00711025  RH  051%=      5-min Rain = 0
KCA1 140254Z 03010KT 07/M03 A299 RMK A01 T00701025  RH  051%=      5-min Rain = 0
KCA1 140255Z 03010KT 07/M03 A299 RMK A01 T00691025  RH  051%=      5-min Rain = 0
KCA1 140256Z 03010KT 07/M03 A299 RMK A01 T00681025  RH  052%=      5-min Rain = 0
KCA1 140257Z 02010KT 07/M02 A299 RMK A01 T00671024  RH  052%=      5-min Rain = 0
KCA1 140258Z 02009KT 07/M02 A299 RMK A01 T00671024  RH  052%=      5-min Rain = 0
KCA1 140259Z 02009KT 07/M02 A299 RMK A01 T00661024  RH  052%=      5-min Rain = 0
KCA1 140300Z 02009KT 07/M02 A299 RMK A01 T00651024  RH  053%=      5-min Rain = 0
KCA1 140301Z 02009KT 07/M02 A299 RMK A01 T00651024  RH  053%=      5-min Rain = 0
KCA1 140302Z 02009KT 06/M02 A299 RMK A01 T00641024  RH  053%=      5-min Rain = 0
KCA1 140303Z 01009KT 06/M02 A299 RMK A01 T00641024  RH  053%=      5-min Rain = 0
KCA1 140304Z 01009KT 06/M02 A299 RMK A01 T00631024  RH  053%=      5-min Rain = 0
KCA1 140305Z 01009KT 06/M03 A2991 RMK A01 T00621025  RH  054%=      5-min Rain = 0
KCA1 140306Z 01009KT 06/M02 A2991 RMK A01 T00611024  RH  054%=      5-min Rain = 0
KCA1 140307Z 01009KT 06/M02 A299 RMK A01 T00601024  RH  055%=      5-min Rain = 0
KCA1 140308Z 01009KT 06/M02 A299 RMK A01 T00601024  RH  055%=      5-min Rain = 0
KCA1 140309Z 01009KT 06/M02 A299 RMK A01 T00591024  RH  055%=      5-min Rain = 0
KCA1 140310Z 02010KT 06/M03 A299 RMK A01 T00581025  RH  055%=      5-min Rain = 0
KCA1 140311Z 01010KT 06/M03 A299 RMK A01 T00571025  RH  055%=      5-min Rain = 0
KCA1 140312Z 01010KT 06/M03 A299 RMK A01 T00571025  RH  056%=      5-min Rain = 0
KCA1 140313Z 01010KT 06/M03 A299 RMK A01 T00551025  RH  056%=      5-min Rain = 0
KCA1 140314Z 01010KT 05/M03 A299 RMK A01 T00541025  RH  057%=      5-min Rain = 0
KCA1 140315Z 01011KT 05/M03 A299 RMK A01 T00531026  RH  057%=      5-min Rain = 0
KCA1 140316Z 01011KT 05/M03 A2991 RMK A01 T00521025  RH  057%=      5-min Rain = 0
KCA1 140317Z 01011KT 05/M03 A2991 RMK A01 T00511025  RH  058%=      5-min Rain = 0
KCA1 140318Z 01011KT 05/M03 A2991 RMK A01 T00511025  RH  058%=      5-min Rain = 0
KCA1 140319Z 01011KT 05/M03 A2991 RMK A01 T00511025  RH  058%=      5-min Rain = 0
KCA1 140320Z 01011KT 05/M03 A2991 RMK A01 T00511025  RH  058%=      5-min Rain = 0
KCA1 140321Z 01011KT 05/M03 A2991 RMK A01 T00511025  RH  058%=      5-min Rain = 0
KCA1 140322Z 01011KT 05/M03 A299 RMK A01 T00511025  RH  058%=      5-min Rain = 0
KCA1 140323Z 01011KT 05/M03 A2991 RMK A01 T00511025  RH  058%=      5-min Rain = 0
KCA1 140324Z 01011KT 05/M03 A299 RMK A01 T00521025  RH  058%=      5-min Rain = 0
KCA1 140325Z 01011KT 05/M03 A2991 RMK A01 T00511025  RH  058%=      5-min Rain = 0
KCA1 140326Z 01011KT 05/M03 A2991 RMK A01 T00521025  RH  057%=      5-min Rain = 0
KCA1 140327Z 01011KT 05/M03 A2991 RMK A01 T00521025  RH  057%=      5-min Rain = 0
KCA1 140328Z 00012KT 05/M03 A2991 RMK A01 T00521025  RH  057%=      5-min Rain = 0
KCA1 140329Z 01012KT 05/M03 A2991 RMK A01 T00521025  RH  057%=      5-min Rain = 0
KCA1 140330Z 00012KT 05/M03 A2991 RMK A01 T00531025  RH  057%=      5-min Rain = 0
KCA1 140331Z 01012KT 05/M02 A2991 RMK A01 T00541024  RH  057%=      5-min Rain = 0
KCA1 140332Z 00012KT 06/M02 A2991 RMK A01 T00551024  RH  057%=      5-min Rain = 0
KCA1 140333Z 00012KT 06/M02 A2992 RMK A01 T00561024  RH  057%=      5-min Rain = 0
KCA1 140334Z 00011KT 06/M02 A2992 RMK A01 T00571024  RH  056%=      5-min Rain = 0
KCA1 140335Z 00012KT 06/M02 A2992 RMK A01 T00571024  RH  056%=      5-min Rain = 0
KCA1 140336Z 00011KT 06/M02 A2992 RMK A01 T00571023  RH  056%=      5-min Rain = 0
KCA1 140337Z 00011KT 06/M02 A2992 RMK A01 T00581023  RH  056%=      5-min Rain = 0
KCA1 140338Z 00010KT 06/M02 A2992 RMK A01 T00581023  RH  056%=      5-min Rain = 0
KCA1 140339Z 00011KT 06/M02 A2992 RMK A01 T00591023  RH  056%=      5-min Rain = 0
KCA1 140340Z 00010KT 06/M02 A2992 RMK A01 T00591023  RH  056%=      5-min Rain = 0
KCA1 140341Z 00010KT 06/M02 A2992 RMK A01 T00591022  RH  056%=      5-min Rain = 0
KCA1 140342Z 00010KT 06/M02 A2992 RMK A01 T00591022  RH  056%=      5-min Rain = 0
KCA1 140343Z 00009KT 06/M02 A2992 RMK A01 T00591022  RH  056%=      5-min Rain = 0
KCA1 140344Z 00009KT 06/M02 A2992 RMK A01 T00591022  RH  056%=      5-min Rain = 0
KCA1 140345Z 00009KT 06/M02 A2992 RMK A01 T00601021  RH  056%=      5-min Rain = 0
KCA1 140346Z 00009KT 06/M02 A2992 RMK A01 T00601021  RH  056%=      5-min Rain = 0
KCA1 140347Z 00009KT 06/M02 A2992 RMK A01 T00601021  RH  056%=      5-min Rain = 0
KCA1 140348Z 00008KT 06/M02 A2992 RMK A01 T00601021  RH  056%=      5-min Rain = 0
KCA1 140349Z 01009KT 06/M02 A2992 RMK A01 T00591021  RH  057%=      5-min Rain = 0
KCA1 140350Z 00009KT 06/M02 A2992 RMK A01 T00591021  RH  057%=      5-min Rain = 0
KCA1 140351Z 00010KT 06/M02 A2992 RMK A01 T00591020  RH  057%=      5-min Rain = 0
KCA1 140352Z 36009KT 06/M02 A2992 RMK A01 T00581020  RH  057%=      5-min Rain = 0
KCA1 140353Z 00009KT 06/M02 A2992 RMK A01 T00581020  RH  057%=      5-min Rain = 0
KCA1 140354Z 00008KT 06/M02 A2992 RMK A01 T00581020  RH  057%=      5-min Rain = 0
KCA1 140355Z 00008KT 06/M02 A2992 RMK A01 T00581020  RH  057%=      5-min Rain = 0
KCA1 140356Z 00009KT 06/M02 A2992 RMK A01 T00581020  RH  057%=      5-min Rain = 0
KCA1 140357Z 01009KT 06/M02 A2992 RMK A01 T00571021  RH  057%=      5-min Rain = 0
KCA1 140358Z 00008KT 06/M02 A2992 RMK A01 T00571021  RH  057%=      5-min Rain = 0
KCA1 140359Z 36009KT 06/M02 A2992 RMK A01 T00561021  RH  058%=      5-min Rain = 0
KCA1 140400Z 36008KT 06/M02 A2992 RMK A01 T00551021  RH  058%=      5-min Rain = 0
KCA1 140401Z 35008KT 06/M02 A2992 RMK A01 T00551021  RH  058%=      5-min Rain = 0
KCA1 140402Z 35007KT 05/M02 A2992 RMK A01 T00541022  RH  058%=      5-min Rain = 0
KCA1 140403Z 35006KT 05/M02 A2992 RMK A01 T00531022  RH  058%=      5-min Rain = 0
KCA1 140404Z 34006KT 05/M02 A2992 RMK A01 T00521023  RH  059%=      5-min Rain = 0
KCA1 140405Z 34006KT 05/M02 A2992 RMK A01 T00511023  RH  059%=      5-min Rain = 0
KCA1 140406Z 34005KT 05/M02 A2992 RMK A01 T00501024  RH  059%=      5-min Rain = 0
KCA1 140407Z 33004KT 05/M02 A2992 RMK A01 T00491024  RH  059%=      5-min Rain = 0
KCA1 140408Z 32003KT 05/M03 A2992 RMK A01 T00481025  RH  059%=      5-min Rain = 0
KCA1 140409Z 31003KT 05/M03 A2992 RMK A01 T00471025  RH  059%=      5-min Rain = 0
KCA1 140410Z 32003KT 05/M03 A2992 RMK A01 T00451026  RH  060%=      5-min Rain = 0
KCA1 140411Z 31003KT 04/M03 A2992 RMK A01 T00431028  RH  060%=      5-min Rain = 0
KCA1 140412Z 31003KT 04/M03 A2992 RMK A01 T00411029  RH  060%=      5-min Rain = 0
KCA1 140413Z 31003KT 04/M03 A2992 RMK A01 T00391029  RH  061%=      5-min Rain = 0
KCA1 140414Z 31003KT 04/M03 A2992 RMK A01 T00381028  RH  062%=      5-min Rain = 0
KCA1 140415Z 30004KT 04/M03 A2992 RMK A01 T00381028  RH  062%=      5-min Rain = 0
KCA1 140416Z 30004KT 04/M03 A2992 RMK A01 T00381027  RH  062%=      5-min Rain = 0
KCA1 140417Z 30004KT 04/M03 A2992 RMK A01 T00371028  RH  062%=      5-min Rain = 0
KCA1 140418Z 30005KT 04/M03 A2992 RMK A01 T00361028  RH  063%=      5-min Rain = 0
KCA1 140419Z 30005KT 04/M03 A2992 RMK A01 T00351028  RH  063%=      5-min Rain = 0
KCA1 140420Z 30005KT 03/M03 A2992 RMK A01 T00341028  RH  064%=      5-min Rain = 0
KCA1 140421Z 31005KT 03/M03 A2992 RMK A01 T00341028  RH  064%=      5-min Rain = 0
KCA1 140422Z 31005KT 03/M03 A2992 RMK A01 T00341028  RH  064%=      5-min Rain = 0
KCA1 140423Z 31005KT 03/M03 A2992 RMK A01 T00321029  RH  064%=      5-min Rain = 0
KCA1 140424Z 31005KT 03/M03 A2992 RMK A01 T00311029  RH  065%=      5-min Rain = 0
KCA1 140425Z 31005KT 03/M03 A2991 RMK A01 T00301030  RH  065%=      5-min Rain = 0
KCA1 140426Z 31005KT 03/M03 A2991 RMK A01 T00281030  RH  065%=      5-min Rain = 0
KCA1 140427Z 31005KT 03/M03 A2991 RMK A01 T00281030  RH  066%=      5-min Rain = 0
KCA1 140428Z 31005KT 03/M03 A2992 RMK A01 T00261031  RH  066%=      5-min Rain = 0
KCA1 140429Z 31005KT 03/M03 A2992 RMK A01 T00251031  RH  066%=      5-min Rain = 0
KCA1 140430Z 31006KT 02/M03 A2992 RMK A01 T00241031  RH  067%=      5-min Rain = 0
KCA1 140431Z 31006KT 02/M03 A2992 RMK A01 T00221032  RH  067%=      5-min Rain = 0
KCA1 140432Z 31006KT 02/M03 A2992 RMK A01 T00211033  RH  068%=      5-min Rain = 0
KCA1 140433Z 31005KT 02/M03 A2992 RMK A01 T00201033  RH  068%=      5-min Rain = 0
KCA1 140434Z 31006KT 02/M03 A2992 RMK A01 T00181033  RH  069%=      5-min Rain = 0
KCA1 140435Z 32006KT 02/M03 A2992 RMK A01 T00181032  RH  069%=      5-min Rain = 0
KCA1 140436Z 32006KT 02/M03 A2992 RMK A01 T00181032  RH  070%=      5-min Rain = 0
KCA1 140437Z 32006KT 02/M03 A2992 RMK A01 T00181031  RH  070%=      5-min Rain = 0
KCA1 140438Z 31006KT 02/M03 A2992 RMK A01 T00181031  RH  070%=      5-min Rain = 0
KCA1 140439Z 31006KT 02/M03 A2992 RMK A01 T00181031  RH  070%=      5-min Rain = 0
KCA1 140440Z 31006KT 02/M03 A2992 RMK A01 T00181031  RH  070%=      5-min Rain = 0
KCA1 140441Z 31006KT 02/M03 A2992 RMK A01 T00181031  RH  070%=      5-min Rain = 0
KCA1 140442Z 30006KT 02/M03 A2992 RMK A01 T00181031  RH  070%=      5-min Rain = 0
KCA1 140443Z 30006KT 02/M03 A2993 RMK A01 T00181030  RH  070%=      5-min Rain = 0
KCA1 140444Z 30006KT 02/M03 A2993 RMK A01 T00181031  RH  070%=      5-min Rain = 0
KCA1 140445Z 30007KT 02/M03 A2993 RMK A01 T00171031  RH  070%=      5-min Rain = 0
KCA1 140446Z 30006KT 02/M03 A2993 RMK A01 T00171030  RH  071%=      5-min Rain = 0
KCA1 140447Z 30007KT 02/M03 A2993 RMK A01 T00191029  RH  071%=      5-min Rain = 0
KCA1 140448Z 30007KT 02/M03 A2993 RMK A01 T00201028  RH  071%=      5-min Rain = 0
KCA1 140449Z 30007KT 02/M03 A2993 RMK A01 T00221027  RH  070%=      5-min Rain = 0
KCA1 140450Z 30007KT 02/M03 A2993 RMK A01 T00231027  RH  070%=      5-min Rain = 0
KCA1 140451Z 29007KT 02/M03 A2993 RMK A01 T00241027  RH  069%=      5-min Rain = 0
KCA1 140452Z 29006KT 03/M03 A2993 RMK A01 T00251027  RH  068%=      5-min Rain = 0
KCA1 140453Z 29006KT 03/M03 A2993 RMK A01 T00251028  RH  068%=      5-min Rain = 0
KCA1 140454Z 29005KT 03/M03 A2993 RMK A01 T00261027  RH  068%=      5-min Rain = 0
KCA1 140455Z 28006KT 03/M03 A2993 RMK A01 T00261028  RH  068%=      5-min Rain = 0
KCA1 140456Z 28007KT 03/M03 A2993 RMK A01 T00251029  RH  068%=      5-min Rain = 0
KCA1 140457Z 29006KT 02/M03 A2993 RMK A01 T00241029  RH  068%=      5-min Rain = 0
KCA1 140458Z 28007KT 02/M03 A2993 RMK A01 T00231029  RH  068%=      5-min Rain = 0
KCA1 140459Z 28007KT 02/M03 A2993 RMK A01 T00231029  RH  069%=      5-min Rain = 0
KCA1 140500Z 28008KT 02/M03 A2993 RMK A01 T00231028  RH  069%=      5-min Rain = 0
KCA1 140501Z 28007KT 03/M03 A2992 RMK A01 T00251027  RH  069%=      5-min Rain = 0
KCA1 140502Z 28007KT 03/M03 A2992 RMK A01 T00261026  RH  068%=      5-min Rain = 0
KCA1 140503Z 28007KT 03/M03 A2992 RMK A01 T00281026  RH  068%=      5-min Rain = 0
KCA1 140504Z 29006KT 03/M03 A2992 RMK A01 T00291026  RH  067%=      5-min Rain = 0
KCA1 140505Z 29008KT 03/M03 A2993 RMK A01 T00301026  RH  067%=      5-min Rain = 0
KCA1 140506Z 29007KT 03/M03 A2993 RMK A01 T00291026  RH  067%=      5-min Rain = 0
KCA1 140507Z 29007KT 03/M03 A2992 RMK A01 T00291026  RH  067%=      5-min Rain = 0
KCA1 140508Z 30005KT 03/M03 A2992 RMK A01 T00291026  RH  067%=      5-min Rain = 0
KCA1 140509Z 30006KT 03/M03 A2992 RMK A01 T00291027  RH  067%=      5-min Rain = 0
KCA1 140510Z 31006KT 03/M03 A2992 RMK A01 T00271029  RH  067%=      5-min Rain = 0
KCA1 140511Z 30007KT 03/M03 A2992 RMK A01 T00251029  RH  068%=      5-min Rain = 0
KCA1 140512Z 31006KT 02/M03 A2992 RMK A01 T00241028  RH  068%=      5-min Rain = 0
KCA1 140513Z 31006KT 02/M03 A2992 RMK A01 T00241028  RH  069%=      5-min Rain = 0
KCA1 140514Z 31006KT 02/M03 A2992 RMK A01 T00231028  RH  069%=      5-min Rain = 0
KCA1 140515Z 31006KT 02/M03 A2992 RMK A01 T00221028  RH  069%=      5-min Rain = 0
KCA1 140516Z 32007KT 02/M03 A2992 RMK A01 T00221029  RH  069%=      5-min Rain = 0
KCA1 140517Z 32007KT 02/M03 A2992 RMK A01 T00211029  RH  069%=      5-min Rain = 0
KCA1 140518Z 33007KT 02/M03 A2992 RMK A01 T00211029  RH  069%=      5-min Rain = 0
KCA1 140519Z 33007KT 02/M03 A2992 RMK A01 T00211029  RH  070%=      5-min Rain = 0
KCA1 140520Z 33007KT 02/M03 A2992 RMK A01 T00221028  RH  069%=      5-min Rain = 0
KCA1 140521Z 33007KT 03/M03 A2992 RMK A01 T00251028  RH  068%=      5-min Rain = 0
KCA1 140522Z 33008KT 03/M03 A2992 RMK A01 T00271028  RH  067%=      5-min Rain = 0
KCA1 140523Z 33008KT 03/M03 A2992 RMK A01 T00311028  RH  065%=      5-min Rain = 0
KCA1 140524Z 34008KT 03/M03 A2992 RMK A01 T00341029  RH  063%=      5-min Rain = 0
KCA1 140525Z 33008KT 04/M03 A2992 RMK A01 T00371030  RH  062%=      5-min Rain = 0
KCA1 140526Z 33009KT 04/M03 A2992 RMK A01 T00381031  RH  060%=      5-min Rain = 0
KCA1 140527Z 34009KT 04/M03 A2992 RMK A01 T00411032  RH  059%=      5-min Rain = 0
KCA1 140528Z 34008KT 04/M03 A2992 RMK A01 T00441032  RH  058%=      5-min Rain = 0
KCA1 140529Z 34010KT 05/M03 A2992 RMK A01 T00461032  RH  057%=      5-min Rain = 0
KCA1 140530Z 34010KT 05/M03 A2992 RMK A01 T00491032  RH  056%=      5-min Rain = 0
KCA1 140531Z 34011KT 05/M03 A2992 RMK A01 T00531032  RH  054%=      5-min Rain = 0
KCA1 140532Z 34010KT 06/M03 A2991 RMK A01 T00551033  RH  053%=      5-min Rain = 0
KCA1 140533Z 34010KT 06/M03 A2991 RMK A01 T00571033  RH  052%=      5-min Rain = 0
KCA1 140534Z 35011KT 06/M03 A2992 RMK A01 T00571034  RH  052%=      5-min Rain = 0
KCA1 140535Z 34011KT 06/M04 A2991 RMK A01 T00581035  RH  051%=      5-min Rain = 0
KCA1 140536Z 35010KT 06/M04 A2992 RMK A01 T00591035  RH  051%=      5-min Rain = 0
KCA1 140537Z 35011KT 06/M04 A2992 RMK A01 T00591035  RH  051%=      5-min Rain = 0
KCA1 140538Z 34012KT 06/M04 A2992 RMK A01 T00591036  RH  051%=      5-min Rain = 0
KCA1 140539Z 35012KT 06/M04 A2992 RMK A01 T00591037  RH  050%=      5-min Rain = 0
KCA1 140540Z 35012KT 06/M04 A2992 RMK A01 T00601036  RH  050%=      5-min Rain = 0
KCA1 140541Z 35011KT 06/M04 A2992 RMK A01 T00601037  RH  050%=      5-min Rain = 0
KCA1 140542Z 35011KT 06/M04 A2991 RMK A01 T00601037  RH  050%=      5-min Rain = 0
KCA1 140543Z 35012KT 06/M04 A2992 RMK A01 T00601038  RH  049%=      5-min Rain = 0
KCA1 140544Z 35012KT 06/M04 A2992 RMK A01 T00611038  RH  049%=      5-min Rain = 0
KCA1 140545Z 35012KT 06/M04 A2992 RMK A01 T00611039  RH  049%=      5-min Rain = 0
KCA1 140546Z 36013KT 06/M04 A2992 RMK A01 T00611039  RH  049%=      5-min Rain = 0
KCA1 140547Z 36013KT 06/M04 A2992 RMK A01 T00611039  RH  048%=      5-min Rain = 0
KCA1 140548Z 35014KT 06/M04 A2992 RMK A01 T00621040  RH  048%=      5-min Rain = 0
KCA1 140549Z 35011KT 06/M04 A2992 RMK A01 T00621040  RH  048%=      5-min Rain = 0
KCA1 140550Z 35013KT 06/M04 A2992 RMK A01 T00621040  RH  048%=      5-min Rain = 0
KCA1 140551Z 35013KT 06/M04 A2992 RMK A01 T00611040  RH  048%=      5-min Rain = 0
KCA1 140552Z 36013KT 06/M04 A2992 RMK A01 T00611040  RH  048%=      5-min Rain = 0
KCA1 140553Z 35012KT 06/M04 A2992 RMK A01 T00611041  RH  048%=      5-min Rain = 0
KCA1 140554Z 36013KT 06/M04 A2992 RMK A01 T00611041  RH  048%=      5-min Rain = 0
KCA1 140555Z 36013KT 06/M04 A2991 RMK A01 T00611041  RH  048%=      5-min Rain = 0
KCA1 140556Z 36012KT 06/M04 A2991 RMK A01 T00611042  RH  048%=      5-min Rain = 0
KCA1 140557Z 36013KT 06/M04 A2991 RMK A01 T00611041  RH  048%=      5-min Rain = 0
KCA1 140558Z 36013KT 06/M04 A2991 RMK A01 T00611042  RH  047%=      5-min Rain = 0
KCA1 140559Z 00014KT 06/M04 A2991 RMK A01 T00621042  RH  047%=      5-min Rain = 0

Page generated in 0.0641 seconds.